Darstellungsparameter: Aktuell verwendete Einstellungen:
Skalierung der Graphiken ... ?
xyx+y,   Skalierungsfaktor:      Skalierung: Modus: x, Faktor: 1
Darstellungszeitraum ... ?
Vom - - bis: - -   Zeitraum: 14.08.2019 - 13.08.2022
Min/Max/Avg-Anzeige ... ?
Zeige MMA aktuell
Zeige MMA Monat
Zeige MMA alles
Zeige --A aktuell
Zeige --A Monat
Zeige --A alles
Keine MMA-Anzeige
MMA:
Average (ber die Originaldaten)
MMA-Basis: 14.08.2019 - 13.08.2022
Quicknavigation für Darstellung... ?
Tage:      1T, 2T, 3T, 5T -1T -2T -3T -5T +1T +2T +3T +5T
Wochen: 1W, 2W, 3W -1W -2W -3W +1W +2W +3W
Monate: 1M, 3M, 6M -1M -3M -6M +1M +3M +6M
Jahre:    1J, 3J, 5J, 10J -1J -3J -5J -10J +1J +3J +5J +10J
Nutze für die Darstellung ... ?
Originaldaten oder ...
Mittelwerte Minima Maxima auf...
Stundenbasis Tagesbasis Wochenbasis
Monatsbasis Jahresbasis      Datenbasis: Mittelwerte auf Tagesbasis
Darstellen als:
Statistik (Auto) Statistik J:M      Darstellung:
Zur Graphik,    zurück zur Übersicht aller Sensoren.
 
Tabellarische Datenbersicht: ?
 
Sensor: Nr:Datum:Temp:Abs-Feuchte:Windchill:Wind:
Aussen-T/F 1 14-08-2019 00:00:00 16.52882 C 10.69 g/m*3 16.53 C 3.79861 km/h
2 15-08-2019 00:00:00 17.34306 C 13.07 g/m*3 17.34 C 5.15139 km/h
3 16-08-2019 00:00:00 17.72257 C 12.19 g/m*3 17.72 C 5.73264 km/h
4 17-08-2019 00:00:00 18.07049 C 13.36 g/m*3 18.07 C 2.66632 km/h
5 18-08-2019 00:00:00 19.8941 C 15.51 g/m*3 19.89 C 4.75694 km/h
6 19-08-2019 00:00:00 18.3684 C 12.23 g/m*3 18.37 C 4.84549 km/h
7 20-08-2019 00:00:00 15.78611 C 10.76 g/m*3 15.79 C 1.24618 km/h
8 21-08-2019 00:00:00 16.52222 C 10.61 g/m*3 16.52 C 1.51736 km/h
9 22-08-2019 00:00:00 17.27465 C 10.64 g/m*3 17.27 C 1.60208 km/h
10 23-08-2019 00:00:00 18.44792 C 11.19 g/m*3 18.45 C 2.36632 km/h
11 24-08-2019 00:00:00 19.52326 C 11.88 g/m*3 19.52 C 2.67396 km/h
12 25-08-2019 00:00:00 21.57431 C 14.28 g/m*3 21.57 C 1.39479 km/h
13 26-08-2019 00:00:00 22.3684 C 15.94 g/m*3 22.37 C 0.85174 km/h
14 27-08-2019 00:00:00 22.81979 C 16.16 g/m*3 22.82 C 0.89201 km/h
15 28-08-2019 00:00:00 23.38924 C 15.36 g/m*3 23.39 C 3.07813 km/h
16 29-08-2019 00:00:00 22.04201 C 14.97 g/m*3 22.04 C 3.15764 km/h
17 30-08-2019 00:00:00 21.0059 C 13.28 g/m*3 21.01 C 1.87778 km/h
18 31-08-2019 00:00:00 22.0566 C 14.04 g/m*3 22.06 C 2.34618 km/h
19 01-09-2019 00:00:00 18.73056 C 12.21 g/m*3 18.73 C 4.84896 km/h
20 02-09-2019 00:00:00 15.43958 C 8.93 g/m*3 15.44 C 2.90972 km/h
21 03-09-2019 00:00:00 15.68611 C 9.42 g/m*3 15.69 C 3.81736 km/h
22 04-09-2019 00:00:00 16.83646 C 11.04 g/m*3 16.84 C 5.32361 km/h
23 05-09-2019 00:00:00 15.41285 C 9.85 g/m*3 15.41 C 6.91979 km/h
24 06-09-2019 00:00:00 13.54271 C 8.36 g/m*3 13.54 C 2.30035 km/h
25 07-09-2019 00:00:00 12.95382 C 9.82 g/m*3 12.95 C 1.11875 km/h
Sensor: Nr:Datum:Temp:Abs-Feuchte:Windchill:Wind:
Aussen-T/F 26 08-09-2019 00:00:00 12.67778 C 10.48 g/m*3 12.68 C 1.02292 km/h
27 09-09-2019 00:00:00 12.50868 C 9.95 g/m*3 12.51 C 0.62222 km/h
28 10-09-2019 00:00:00 11.86563 C 9.01 g/m*3 11.87 C 1.27153 km/h
29 11-09-2019 00:00:00 13.34931 C 9.38 g/m*3 13.35 C 3.32083 km/h
30 12-09-2019 00:00:00 19.07292 C 12.83 g/m*3 19.07 C 5.07257 km/h
31 13-09-2019 00:00:00 17.76319 C 13.35 g/m*3 17.76 C 2.56076 km/h
32 14-09-2019 00:00:00 15.58229 C 10.78 g/m*3 15.58 C 1.03194 km/h
33 15-09-2019 00:00:00 15.40243 C 10.32 g/m*3 15.4 C 0.29444 km/h
34 16-09-2019 00:00:00 16.09444 C 10.79 g/m*3 16.09 C 2.79514 km/h
35 17-09-2019 00:00:00 15.6191 C 9.81 g/m*3 15.62 C 7.71493 km/h
36 18-09-2019 00:00:00 11.41215 C 7.6 g/m*3 11.41 C 3.00799 km/h
37 19-09-2019 00:00:00 10.47361 C 7.22 g/m*3 10.47 C 2.36771 km/h
38 20-09-2019 00:00:00 10.72153 C 7.12 g/m*3 10.72 C 2.07396 km/h
39 21-09-2019 00:00:00 12.32465 C 7.54 g/m*3 12.32 C 1.46806 km/h
40 22-09-2019 00:00:00 14.8625 C 9.65 g/m*3 14.86 C 0.47778 km/h
41 23-09-2019 00:00:00 16.54479 C 11.93 g/m*3 16.54 C 4.12674 km/h
42 24-09-2019 00:00:00 14.13194 C 10.98 g/m*3 14.13 C 0.63611 km/h
43 25-09-2019 00:00:00 15.26806 C 11.83 g/m*3 15.27 C 3.64549 km/h
44 26-09-2019 00:00:00 16.26111 C 12.83 g/m*3 16.26 C 2.32917 km/h
45 27-09-2019 00:00:00 16.20451 C 11.99 g/m*3 16.2 C 6.36285 km/h
46 28-09-2019 00:00:00 15.30903 C 11.1 g/m*3 15.31 C 9.7816 km/h
47 29-09-2019 00:00:00 16.12778 C 11.4 g/m*3 16.13 C 9.27535 km/h
48 30-09-2019 00:00:00 15.31424 C 10.49 g/m*3 15.31 C 11.19965 km/h
49 01-10-2019 00:00:00 15.98125 C 12.01 g/m*3 15.98 C 6.38333 km/h
50 02-10-2019 00:00:00 12.49479 C 9.13 g/m*3 12.49 C 7.54097 km/h
Sensor: Nr:Datum:Temp:Abs-Feuchte:Windchill:Wind:
Aussen-T/F 51 03-10-2019 00:00:00 9.77535 C 8.39 g/m*3 9.78 C 2.6566 km/h
52 04-10-2019 00:00:00 10.31563 C 9.12 g/m*3 10.32 C 2.49479 km/h
53 05-10-2019 00:00:00 10.64965 C 8.61 g/m*3 10.65 C 3.49583 km/h
54 06-10-2019 00:00:00 8.34063 C 8.11 g/m*3 8.34 C 0.84097 km/h
55 07-10-2019 00:00:00 10.09167 C 8.92 g/m*3 10.09 C 1.20799 km/h
56 08-10-2019 00:00:00 12.83333 C 10.63 g/m*3 12.83 C 5.34132 km/h
57 09-10-2019 00:00:00 11.68715 C 9.67 g/m*3 11.69 C 6.15069 km/h
58 10-10-2019 00:00:00 11.67509 C 9.02 g/m*3 11.68 C 7.65474 km/h
59 11-10-2019 00:00:00 12.72361 C 9.95 g/m*3 12.72 C 4.43958 km/h
60 12-10-2019 00:00:00 13.63368 C 10.51 g/m*3 13.63 C 3.71458 km/h
61 13-10-2019 00:00:00 16.44722 C 12.77 g/m*3 16.45 C 0.84688 km/h
62 14-10-2019 00:00:00 16.00938 C 12.22 g/m*3 16.01 C 0.57951 km/h
63 15-10-2019 00:00:00 14.32674 C 11.35 g/m*3 14.33 C 1.88889 km/h
64 16-10-2019 00:00:00 12.65347 C 10.45 g/m*3 12.65 C 2.06354 km/h
65 17-10-2019 00:00:00 14.64826 C 11.42 g/m*3 14.65 C 2.20521 km/h
66 18-10-2019 00:00:00 12.52604 C 10.1 g/m*3 12.53 C 3.73403 km/h
67 19-10-2019 00:00:00 12.88561 C 10.24 g/m*3 12.89 C 1.25396 km/h
68 20-10-2019 00:00:00 13.60139 C 11.48 g/m*3 13.6 C 0.10592 km/h
69 21-10-2019 00:00:00 13.67735 C 11.06 g/m*3 13.68 C 1.77735 km/h
70 22-10-2019 00:00:00 11.49819 C 9.49 g/m*3 11.5 C 0.65884 km/h
71 23-10-2019 00:00:00 11.05972 C 9.52 g/m*3 11.06 C 1.19514 km/h
72 24-10-2019 00:00:00 14.06458 C 11.16 g/m*3 14.06 C 0.74618 km/h
73 25-10-2019 00:00:00 13.32951 C 10.11 g/m*3 13.33 C 3.23785 km/h
74 26-10-2019 00:00:00 13.17604 C 10.48 g/m*3 13.18 C 0.73993 km/h
75 27-10-2019 00:00:00 10.25174 C 8.89 g/m*3 10.25 C 2.11736 km/h
Sensor: Nr:Datum:Temp:Abs-Feuchte:Windchill:Wind:
Aussen-T/F 76 28-10-2019 00:00:00 6.33854 C 7.18 g/m*3 6.34 C 0.77847 km/h
77 29-10-2019 00:00:00 6.56632 C 6.94 g/m*3 6.57 C 1.2191 km/h
78 30-10-2019 00:00:00 3.52778 C 5.79 g/m*3 3.53 C 0.38368 km/h
79 31-10-2019 00:00:00 2.23438 C 5.28 g/m*3 2.23 C 0.67396 km/h
80 01-11-2019 00:00:00 6.02465 C 6.99 g/m*3 6.02 C 0.48958 km/h
81 02-11-2019 00:00:00 13.19792 C 10.36 g/m*3 13.2 C 6.07292 km/h
82 03-11-2019 00:00:00 11.85035 C 9.69 g/m*3 11.85 C 1.69514 km/h
83 04-11-2019 00:00:00 10.33333 C 8.92 g/m*3 10.33 C 3.08403 km/h
84 05-11-2019 00:00:00 9.70972 C 8.25 g/m*3 9.71 C 2.63854 km/h
85 06-11-2019 00:00:00 8.97569 C 8.38 g/m*3 8.98 C 1.65278 km/h
86 07-11-2019 00:00:00 7.93611 C 7.85 g/m*3 7.94 C 1.98715 km/h
87 08-11-2019 00:00:00 4.99444 C 6.56 g/m*3 4.99 C 0.32778 km/h
88 09-11-2019 00:00:00 4.99167 C 6.39 g/m*3 4.99 C 3.73299 km/h
89 10-11-2019 00:00:00 3.02188 C 5.69 g/m*3 3.02 C 1.31146 km/h
90 11-11-2019 00:00:00 4.67986 C 6.09 g/m*3 4.68 C 3.38854 km/h
91 12-11-2019 00:00:00 5.9125 C 6.37 g/m*3 5.91 C 4.80729 km/h
92 13-11-2019 00:00:00 5.47431 C 6.19 g/m*3 5.47 C 3.37118 km/h
93 14-11-2019 00:00:00 5.50729 C 6.04 g/m*3 5.51 C 1.95556 km/h
94 15-11-2019 00:00:00 4.68958 C 5.87 g/m*3 4.69 C 1.32639 km/h
95 16-11-2019 00:00:00 2.11389 C 5.35 g/m*3 2.11 C 0.59444 km/h
96 17-11-2019 00:00:00 3.09271 C 5.81 g/m*3 3.09 C 1.22049 km/h
97 18-11-2019 00:00:00 4.31181 C 6.25 g/m*3 4.31 C 4.39097 km/h
98 19-11-2019 00:00:00 3.99132 C 6.02 g/m*3 3.99 C 3.26597 km/h
99 20-11-2019 00:00:00 1.59583 C 5.12 g/m*3 1.6 C 1.20972 km/h
100 21-11-2019 00:00:00 1.90833 C 5.3 g/m*3 1.91 C 0.25556 km/h
Sensor: Nr:Datum:Temp:Abs-Feuchte:Windchill:Wind:
Aussen-T/F 101 22-11-2019 00:00:00 4.39097 C 6.22 g/m*3 4.39 C 2.3066 km/h
102 23-11-2019 00:00:00 5.38785 C 6.48 g/m*3 5.39 C 1.74201 km/h
103 24-11-2019 00:00:00 2.90104 C 5.74 g/m*3 2.9 C 0.06111 km/h
104 25-11-2019 00:00:00 4.80833 C 6.51 g/m*3 4.81 C 0.02778 km/h
105 26-11-2019 00:00:00 8.38542 C 8.03 g/m*3 8.39 C 0.9066 km/h
106 27-11-2019 00:00:00 10.34479 C 8.62 g/m*3 9.87 C 5.98819 km/h
107 28-11-2019 00:00:00 10.92778 C 8.33 g/m*3 8.91 C 16.34514 km/h
108 29-11-2019 00:00:00 6.44618 C 6.66 g/m*3 6.45 C 3.50382 km/h
109 30-11-2019 00:00:00 1.19549 C 5.06 g/m*3 1.2 C 0.78889 km/h
110 01-12-2019 00:00:00 1.79271 C 5.07 g/m*3 1.79 C 0.76285 km/h
111 02-12-2019 00:00:00 1.98646 C 5.18 g/m*3 1.99 C 2.41076 km/h
112 03-12-2019 00:00:00 4.75729 C 6.42 g/m*3 4.76 C 2.90799 km/h
113 04-12-2019 00:00:00 1.34375 C 5.12 g/m*3 1.34 C 0.38889 km/h
114 05-12-2019 00:00:00 -1.15625 C 4.33 g/m*3 -1.16 C 1.07292 km/h
115 06-12-2019 00:00:00 3.41285 C 5.7 g/m*3 1.37 C 7.65486 km/h
116 07-12-2019 00:00:00 8.70903 C 7.68 g/m*3 7.94 C 6.1684 km/h
117 08-12-2019 00:00:00 10.05903 C 8.11 g/m*3 7.98 C 15.03993 km/h
118 09-12-2019 00:00:00 7.72222 C 6.87 g/m*3 5.33 C 13.44757 km/h
119 10-12-2019 00:00:00 3.24757 C 5.5 g/m*3 3.25 C 3.26111 km/h
120 11-12-2019 00:00:00 3.97292 C 6.01 g/m*3 3.97 C 1.18958 km/h
121 12-12-2019 00:00:00 3.52361 C 5.79 g/m*3 3.52 C 2.6559 km/h
122 13-12-2019 00:00:00 4.09722 C 5.89 g/m*3 2.1 C 7.89479 km/h
123 14-12-2019 00:00:00 6.8934 C 6.59 g/m*3 4.55 C 12.00035 km/h
124 15-12-2019 00:00:00 7.90069 C 7.25 g/m*3 6.51 C 8.15799 km/h
125 16-12-2019 00:00:00 8.12951 C 8.07 g/m*3 8.13 C 1.30764 km/h
Sensor: Nr:Datum:Temp:Abs-Feuchte:Windchill:Wind:
Aussen-T/F 126 17-12-2019 00:00:00 10.43056 C 8.68 g/m*3 10.43 C 3.06632 km/h
127 18-12-2019 00:00:00 7.77014 C 7.62 g/m*3 7.77 C 2.52222 km/h
128 19-12-2019 00:00:00 5.57986 C 6.77 g/m*3 5.58 C 1.93472 km/h
129 20-12-2019 00:00:00 7.73264 C 7.5 g/m*3 7.01 C 5.51528 km/h
130 21-12-2019 00:00:00 7.24826 C 7.1 g/m*3 7.25 C 2.32604 km/h
131 22-12-2019 00:00:00 8.18368 C 7.45 g/m*3 6.88 C 7.96806 km/h
132 23-12-2019 00:00:00 7.83021 C 7.24 g/m*3 6.73 C 6.89375 km/h
133 24-12-2019 00:00:00 7.67986 C 7.22 g/m*3 6.56 C 6.89132 km/h
134 25-12-2019 00:00:00 7.66389 C 7.34 g/m*3 6.81 C 5.92118 km/h
135 26-12-2019 00:00:00 4.9934 C 6.53 g/m*3 4.99 C 0.22778 km/h
136 27-12-2019 00:00:00 5.12153 C 6.48 g/m*3 5.12 C 0.62813 km/h
137 28-12-2019 00:00:00 -0.27465 C 4.56 g/m*3 -0.27 C 0.24444 km/h
138 29-12-2019 00:00:00 -1.04618 C 4.3 g/m*3 -1.05 C 0.16111 km/h
139 30-12-2019 00:00:00 -0.88507 C 4.31 g/m*3 -0.89 C 0.57778 km/h
140 31-12-2019 00:00:00 0.52326 C 4.68 g/m*3 0.52 C 0.38889 km/h
141 01-01-2020 00:00:00 0.89583 C 4.89 g/m*3 0.9 C 0.65035 km/h
142 02-01-2020 00:00:00 1.68611 C 5.16 g/m*3 1.69 C 1.07083 km/h
143 03-01-2020 00:00:00 7.56111 C 7.32 g/m*3 5.66 C 10.31771 km/h
144 04-01-2020 00:00:00 5.45936 C 6.25 g/m*3 4.14 C 6.36466 km/h
145 05-01-2020 00:00:00 5.96021 C 6.74 g/m*3 5.96 C 1.99155 km/h
146 06-01-2020 00:00:00 2.98542 C 5.54 g/m*3 2.99 C 0.62257 km/h
147 07-01-2020 00:00:00 5.07812 C 6.3 g/m*3 3.55 C 6.84618 km/h
148 08-01-2020 00:00:00 8.28333 C 7.79 g/m*3 8.28 C 4.43403 km/h
149 09-01-2020 00:00:00 10.92535 C 9.24 g/m*3 10.93 C 4.57049 km/h
150 10-01-2020 00:00:00 8.91667 C 7.74 g/m*3 8.13 C 6.34097 km/h
Sensor: Nr:Datum:Temp:Abs-Feuchte:Windchill:Wind:
Aussen-T/F 151 11-01-2020 00:00:00 4.34236 C 5.77 g/m*3 4.34 C 2.90972 km/h
152 12-01-2020 00:00:00 5.14718 C 6.03 g/m*3 2.77 C 10.27923 km/h
153 13-01-2020 00:00:00 6.54201 C 6.9 g/m*3 6.54 C 2.32361 km/h
154 14-01-2020 00:00:00 9.77153 C 7.21 g/m*3 8.94 C 7.10104 km/h
155 15-01-2020 00:00:00 10.89063 C 7.62 g/m*3 10.7 C 5.23785 km/h
156 16-01-2020 00:00:00 7.81181 C 7.8 g/m*3 7.81 C 1.39618 km/h
157 17-01-2020 00:00:00 6.03854 C 6.82 g/m*3 6.04 C 2.70069 km/h
158 18-01-2020 00:00:00 4.44062 C 5.78 g/m*3 3.14 C 5.81389 km/h
159 19-01-2020 00:00:00 3.78507 C 5.9 g/m*3 3.79 C 1.80972 km/h
160 20-01-2020 00:00:00 2.42431 C 5.25 g/m*3 2.42 C 1.02049 km/h
161 21-01-2020 00:00:00 -1.80243 C 4.12 g/m*3 -1.8 C 0.56111 km/h
162 22-01-2020 00:00:00 -1.19236 C 4.33 g/m*3 -1.19 C 0.77292 km/h
163 23-01-2020 00:00:00 1.30764 C 5.15 g/m*3 1.31 C 0.44514 km/h
164 24-01-2020 00:00:00 1.43415 C 4.89 g/m*3 1.43 C 1.77561 km/h
165 25-01-2020 00:00:00 2.65128 C 5.46 g/m*3 2.65 C 0.67985 km/h
166 26-01-2020 00:00:00 2.81007 C 5.57 g/m*3 2.81 C 0.63333 km/h
167 27-01-2020 00:00:00 6.29028 C 6.96 g/m*3 6.29 C 2.65521 km/h
168 28-01-2020 00:00:00 5.69583 C 6.12 g/m*3 2.94 C 12.92153 km/h
169 29-01-2020 00:00:00 4.80035 C 5.55 g/m*3 2.43 C 9.95972 km/h
170 30-01-2020 00:00:00 7.99861 C 7 g/m*3 6.37 C 9.33646 km/h
171 31-01-2020 00:00:00 13.03785 C 9.57 g/m*3 13.04 C 14.62535 km/h
172 01-02-2020 00:00:00 11.64167 C 9.15 g/m*3 11.64 C 10.45174 km/h
173 02-02-2020 00:00:00 10.18611 C 8.05 g/m*3 8.85 C 10.01215 km/h
174 03-02-2020 00:00:00 10.60417 C 8.03 g/m*3 9.19 C 11.04201 km/h
175 04-02-2020 00:00:00 5.02986 C 6.11 g/m*3 2.89 C 9.12292 km/h
Sensor: Nr:Datum:Temp:Abs-Feuchte:Windchill:Wind:
Aussen-T/F 176 05-02-2020 00:00:00 3.76389 C 5.51 g/m*3 3.76 C 4.16632 km/h
177 06-02-2020 00:00:00 0.78437 C 4.78 g/m*3 0.78 C 0.89479 km/h
178 07-02-2020 00:00:00 0.2559 C 4.69 g/m*3 0.26 C 1.79514 km/h
179 08-02-2020 00:00:00 1.77708 C 5.16 g/m*3 1.78 C 0.1 km/h
180 09-02-2020 00:00:00 8.82708 C 7.2 g/m*3 6.77 C 12.83472 km/h
181 10-02-2020 00:00:00 8.29444 C 6.95 g/m*3 5.04 C 21.87882 km/h
182 11-02-2020 00:00:00 5.77535 C 5.23 g/m*3 2.04 C 20.07639 km/h
183 12-02-2020 00:00:00 4.81875 C 5.45 g/m*3 2.16 C 11.35347 km/h
184 13-02-2020 00:00:00 4.01076 C 5.91 g/m*3 4.01 C 2.95278 km/h
185 14-02-2020 00:00:00 6.17951 C 6.69 g/m*3 6.18 C 4.11667 km/h
186 15-02-2020 00:00:00 6.23438 C 6.6 g/m*3 6.23 C 2.06493 km/h
187 16-02-2020 00:00:00 14.59028 C 8.12 g/m*3 14.59 C 14.33264 km/h
188 17-02-2020 00:00:00 8.54375 C 7.08 g/m*3 6.63 C 11.47951 km/h
189 18-02-2020 00:00:00 7.24965 C 6.32 g/m*3 5.01 C 11.85417 km/h
190 19-02-2020 00:00:00 6.24514 C 5.75 g/m*3 3.85 C 11.5309 km/h
191 20-02-2020 00:00:00 8.16562 C 6.89 g/m*3 6.24 C 11.08403 km/h
192 21-02-2020 00:00:00 5.17604 C 5.66 g/m*3 3.26 C 8.30069 km/h
193 22-02-2020 00:00:00 8.05035 C 6.48 g/m*3 5.62 C 14.2309 km/h
194 23-02-2020 00:00:00 10.5066 C 8.42 g/m*3 8.31 C 17.00868 km/h
195 24-02-2020 00:00:00 8.10972 C 7.26 g/m*3 6.57 C 8.98854 km/h
196 25-02-2020 00:00:00 9.07813 C 7.21 g/m*3 7.21 C 11.89722 km/h
197 26-02-2020 00:00:00 4.86319 C 5.43 g/m*3 1.69 C 14.28889 km/h
198 27-02-2020 00:00:00 2.97813 C 5.36 g/m*3 1.55 C 5.58229 km/h
199 28-02-2020 00:00:00 3.97257 C 5.53 g/m*3 2.34 C 6.60451 km/h
200 29-02-2020 00:00:00 8.92083 C 7.3 g/m*3 7.53 C 9.02882 km/h
Sensor: Nr:Datum:Temp:Abs-Feuchte:Windchill:Wind:
Aussen-T/F 201 01-03-2020 00:00:00 7.55313 C 6.69 g/m*3 5.79 C 9.58958 km/h
202 02-03-2020 00:00:00 6.27882 C 6.58 g/m*3 6.28 C 4.65521 km/h
203 03-03-2020 00:00:00 4.69236 C 5.9 g/m*3 3.05 C 7.02118 km/h
204 04-03-2020 00:00:00 5.49583 C 6.03 g/m*3 3.43 C 9.175 km/h
205 05-03-2020 00:00:00 6.08229 C 6.79 g/m*3 6.08 C 3.4184 km/h
206 06-03-2020 00:00:00 6.29896 C 6.69 g/m*3 4.66 C 7.99722 km/h
207 07-03-2020 00:00:00 6.57396 C 5.95 g/m*3 5.6 C 5.78715 km/h
208 08-03-2020 00:00:00 9.63993 C 7.07 g/m*3 8.43 C 8.76528 km/h
209 09-03-2020 00:00:00 7.99514 C 6.74 g/m*3 6.85 C 7.1875 km/h
210 10-03-2020 00:00:00 9.51076 C 8.25 g/m*3 7.22 C 15.70625 km/h
211 11-03-2020 00:00:00 14.09028 C 10.44 g/m*3 14.09 C 18.09792 km/h
212 12-03-2020 00:00:00 11.24514 C 7.38 g/m*3 11.25 C 14.52049 km/h
213 13-03-2020 00:00:00 7.37569 C 6.06 g/m*3 5.27 C 11.20972 km/h
214 14-03-2020 00:00:00 6.05799 C 6.07 g/m*3 6.06 C 2.24028 km/h
215 15-03-2020 00:00:00 8.92639 C 6.51 g/m*3 8.93 C 4.61528 km/h
216 16-03-2020 00:00:00 9.3 C 7.21 g/m*3 9.3 C 2.61528 km/h
217 17-03-2020 00:00:00 11.38021 C 8.2 g/m*3 11.38 C 2.01007 km/h
218 18-03-2020 00:00:00 9.96493 C 7.74 g/m*3 9.96 C 2.87535 km/h
219 19-03-2020 00:00:00 12.13646 C 8.18 g/m*3 12.14 C 1.76944 km/h
220 20-03-2020 00:00:00 10.33299 C 8.07 g/m*3 9.69 C 6.66424 km/h
221 21-03-2020 00:00:00 6.16667 C 5.61 g/m*3 4.33 C 8.72188 km/h
222 22-03-2020 00:00:00 4.50243 C 3.8 g/m*3 2.15 C 9.60833 km/h
223 23-03-2020 00:00:00 2.99688 C 3.29 g/m*3 1.04 C 7.14792 km/h
224 24-03-2020 00:00:00 2.86181 C 3.32 g/m*3 1.43 C 5.55451 km/h
225 25-03-2020 00:00:00 3.75208 C 3.3 g/m*3 2.26 C 6.0691 km/h
Sensor: Nr:Datum:Temp:Abs-Feuchte:Windchill:Wind:
Aussen-T/F 226 26-03-2020 00:00:00 5.07118 C 3.92 g/m*3 3.35 C 7.52292 km/h
227 27-03-2020 00:00:00 7.93715 C 5.5 g/m*3 7.94 C 4.7875 km/h
228 28-03-2020 00:00:00 9.59861 C 6.11 g/m*3 9.23 C 5.23438 km/h
229 29-03-2020 00:00:00 5.44891 C 4.87 g/m*3 2.38 C 14.50109 km/h
230 30-03-2020 00:00:00 2.775 C 3.76 g/m*3 1.41 C 5.34861 km/h
231 31-03-2020 00:00:00 5.47118 C 4.64 g/m*3 4.25 C 6.03681 km/h
232 01-04-2020 00:00:00 3.8184 C 3.91 g/m*3 3.82 C 2.97292 km/h
233 02-04-2020 00:00:00 5.06042 C 4.64 g/m*3 5.06 C 4.05799 km/h
234 03-04-2020 00:00:00 8.20382 C 5.62 g/m*3 7.03 C 7.44306 km/h
235 04-04-2020 00:00:00 6.78958 C 5.27 g/m*3 6.79 C 4.17049 km/h
236 05-04-2020 00:00:00 9.49479 C 5.92 g/m*3 9.49 C 4.43299 km/h
237 06-04-2020 00:00:00 12.0434 C 6.45 g/m*3 12.04 C 4.85382 km/h
238 07-04-2020 00:00:00 13.80521 C 7.99 g/m*3 13.81 C 3.16285 km/h
239 08-04-2020 00:00:00 14.48472 C 8.09 g/m*3 14.48 C 2.53403 km/h
240 09-04-2020 00:00:00 15.29167 C 8.18 g/m*3 15.29 C 3.63889 km/h
241 10-04-2020 00:00:00 14.13646 C 8.07 g/m*3 14.14 C 3.47292 km/h
242 11-04-2020 00:00:00 14.06563 C 6.91 g/m*3 14.07 C 3.86285 km/h
243 12-04-2020 00:00:00 15.15174 C 7.8 g/m*3 15.15 C 3.30764 km/h
244 13-04-2020 00:00:00 9.40139 C 6.26 g/m*3 8.22 C 8.425 km/h
245 14-04-2020 00:00:00 6.11181 C 4.69 g/m*3 5.29 C 5.16042 km/h
246 15-04-2020 00:00:00 8.67361 C 5.61 g/m*3 8.67 C 3.12465 km/h
247 16-04-2020 00:00:00 12.83299 C 7.18 g/m*3 12.83 C 4.85938 km/h
248 17-04-2020 00:00:00 15.23854 C 9.05 g/m*3 15.24 C 2.55313 km/h
249 18-04-2020 00:00:00 14.52083 C 9.82 g/m*3 14.52 C 2.63993 km/h
250 19-04-2020 00:00:00 13.06597 C 8.91 g/m*3 13.07 C 4.55833 km/h
Sensor: Nr:Datum:Temp:Abs-Feuchte:Windchill:Wind:
Aussen-T/F 251 20-04-2020 00:00:00 12.5066 C 5.55 g/m*3 12.51 C 9.3809 km/h
252 21-04-2020 00:00:00 13.59583 C 5.65 g/m*3 13.6 C 10.06701 km/h
253 22-04-2020 00:00:00 14.35 C 6.22 g/m*3 14.35 C 7.5316 km/h
254 23-04-2020 00:00:00 14.16042 C 7.04 g/m*3 14.16 C 4.06528 km/h
255 24-04-2020 00:00:00 13.96285 C 7.44 g/m*3 13.96 C 4.66563 km/h
256 25-04-2020 00:00:00 12.06389 C 6.69 g/m*3 12.06 C 6.73785 km/h
257 26-04-2020 00:00:00 11.44375 C 6.84 g/m*3 11.44 C 2.65521 km/h
258 27-04-2020 00:00:00 12.89201 C 7.5 g/m*3 12.89 C 3.69201 km/h
259 28-04-2020 00:00:00 12.69306 C 9.65 g/m*3 12.69 C 4.55451 km/h
260 29-04-2020 00:00:00 14.31979 C 9.44 g/m*3 14.32 C 7.80625 km/h
261 30-04-2020 00:00:00 12.21632 C 9 g/m*3 12.22 C 7.24097 km/h
262 01-05-2020 00:00:00 10.57674 C 8.42 g/m*3 9.69 C 7.9691 km/h
263 02-05-2020 00:00:00 9.93542 C 7.85 g/m*3 8.71 C 9.12813 km/h
264 03-05-2020 00:00:00 10.39028 C 7.44 g/m*3 10.39 C 4.16701 km/h
265 04-05-2020 00:00:00 11.82361 C 8.83 g/m*3 11.82 C 3.89167 km/h
266 05-05-2020 00:00:00 10.30833 C 6.6 g/m*3 10.31 C 4.70208 km/h
267 06-05-2020 00:00:00 10.34687 C 6.05 g/m*3 10.35 C 4.38403 km/h
268 07-05-2020 00:00:00 12.36771 C 7.31 g/m*3 12.37 C 2.86944 km/h
269 08-05-2020 00:00:00 15.11146 C 8.36 g/m*3 15.11 C 2.19965 km/h
270 09-05-2020 00:00:00 15.97396 C 9.77 g/m*3 15.97 C 2.71493 km/h
271 10-05-2020 00:00:00 15.5441 C 11.54 g/m*3 15.54 C 2.07882 km/h
272 11-05-2020 00:00:00 9.41007 C 6.58 g/m*3 7.22 C 14.7434 km/h
273 12-05-2020 00:00:00 7.67674 C 5.27 g/m*3 7.12 C 5.00139 km/h
274 13-05-2020 00:00:00 8.92604 C 5.92 g/m*3 8.43 C 5.34167 km/h
275 14-05-2020 00:00:00 9.71389 C 6.11 g/m*3 8.97 C 6.69549 km/h
Sensor: Nr:Datum:Temp:Abs-Feuchte:Windchill:Wind:
Aussen-T/F 276 15-05-2020 00:00:00 10.43264 C 5.89 g/m*3 9.94 C 6.10278 km/h
277 16-05-2020 00:00:00 11.17396 C 6.49 g/m*3 11.17 C 3.70278 km/h
278 17-05-2020 00:00:00 13.11528 C 7.24 g/m*3 13.12 C 5.45208 km/h
279 18-05-2020 00:00:00 15.67292 C 8.67 g/m*3 15.67 C 4.54201 km/h
280 19-05-2020 00:00:00 16.60729 C 9.31 g/m*3 16.61 C 4.70694 km/h
281 20-05-2020 00:00:00 17.77917 C 10.91 g/m*3 17.78 C 5.79792 km/h
282 21-05-2020 00:00:00 19.01562 C 11.3 g/m*3 19.02 C 4.26215 km/h
283 22-05-2020 00:00:00 19.97639 C 12.99 g/m*3 19.98 C 4.51806 km/h
284 23-05-2020 00:00:00 13.69236 C 10.37 g/m*3 13.69 C 7.32083 km/h
285 24-05-2020 00:00:00 13.58542 C 8.77 g/m*3 13.59 C 8.86458 km/h
286 25-05-2020 00:00:00 15.93854 C 10.17 g/m*3 15.94 C 6.43507 km/h
287 26-05-2020 00:00:00 14.58437 C 8.98 g/m*3 14.58 C 4.27986 km/h
288 27-05-2020 00:00:00 16.48611 C 9.1 g/m*3 16.49 C 3.63056 km/h
289 28-05-2020 00:00:00 17.49132 C 8.08 g/m*3 17.49 C 7.57882 km/h
290 29-05-2020 00:00:00 15.20764 C 7.52 g/m*3 15.21 C 5.83229 km/h
291 30-05-2020 00:00:00 15.6941 C 7.43 g/m*3 15.69 C 7.54688 km/h
292 31-05-2020 00:00:00 15.11597 C 7.85 g/m*3 15.12 C 6.56979 km/h
293 01-06-2020 00:00:00 17.87257 C 9.2 g/m*3 17.87 C 5.67674 km/h
294 02-06-2020 00:00:00 19.76701 C 9.86 g/m*3 19.77 C 4.21389 km/h
295 03-06-2020 00:00:00 19.96667 C 10.41 g/m*3 19.97 C 3.58403 km/h
296 04-06-2020 00:00:00 14.67257 C 11.5 g/m*3 14.67 C 3.93715 km/h
297 05-06-2020 00:00:00 11.51111 C 8.89 g/m*3 11.51 C 8.28194 km/h
298 06-06-2020 00:00:00 12.4684 C 8.91 g/m*3 12.47 C 7.64097 km/h
299 07-06-2020 00:00:00 13.39861 C 8.64 g/m*3 13.4 C 6.02326 km/h
300 08-06-2020 00:00:00 14.75035 C 9.21 g/m*3 14.75 C 4.38229 km/h
Sensor: Nr:Datum:Temp:Abs-Feuchte:Windchill:Wind:
Aussen-T/F 301 09-06-2020 00:00:00 13.99236 C 10.65 g/m*3 13.99 C 4.11076 km/h
302 10-06-2020 00:00:00 15.4 C 11.26 g/m*3 15.4 C 2.45972 km/h
303 11-06-2020 00:00:00 15.74271 C 11.48 g/m*3 15.74 C 2.00035 km/h
304 12-06-2020 00:00:00 19.42083 C 12.29 g/m*3 19.42 C 5.55 km/h
305 13-06-2020 00:00:00 20.95799 C 12.96 g/m*3 20.96 C 4.51701 km/h
306 14-06-2020 00:00:00 18.87917 C 13.01 g/m*3 18.88 C 3.71146 km/h
307 15-06-2020 00:00:00 18.60291 C 12.82 g/m*3 18.6 C 2.99891 km/h
308 16-06-2020 00:00:00 18.0434 C 13.69 g/m*3 18.04 C 1.73021 km/h
309 17-06-2020 00:00:00 17.45903 C 13.34 g/m*3 17.46 C 2.12708 km/h
310 18-06-2020 00:00:00 18.51528 C 12.26 g/m*3 18.52 C 7.04444 km/h
311 19-06-2020 00:00:00 16.72674 C 12.02 g/m*3 16.73 C 5.28472 km/h
312 20-06-2020 00:00:00 16.94271 C 12.22 g/m*3 16.94 C 2.92049 km/h
313 21-06-2020 00:00:00 19.05278 C 12.22 g/m*3 19.05 C 4.57847 km/h
314 22-06-2020 00:00:00 18.83785 C 11.69 g/m*3 18.84 C 5.54479 km/h
315 23-06-2020 00:00:00 19.59583 C 11.59 g/m*3 19.6 C 4.04375 km/h
316 24-06-2020 00:00:00 21.22153 C 11.17 g/m*3 21.22 C 6.9809 km/h
317 25-06-2020 00:00:00 21.70278 C 12.93 g/m*3 21.7 C 6.25174 km/h
318 26-06-2020 00:00:00 21.67743 C 13.49 g/m*3 21.68 C 4.66563 km/h
319 27-06-2020 00:00:00 22.68785 C 14.63 g/m*3 22.69 C 7.36736 km/h
320 28-06-2020 00:00:00 19.86979 C 12.42 g/m*3 19.87 C 6.54306 km/h
321 29-06-2020 00:00:00 17.69792 C 10.81 g/m*3 17.7 C 7.67604 km/h
322 30-06-2020 00:00:00 16.88194 C 10.24 g/m*3 16.88 C 6.7059 km/h
323 01-07-2020 00:00:00 21.29896 C 13.31 g/m*3 21.3 C 10.40972 km/h
324 02-07-2020 00:00:00 18.73125 C 13.11 g/m*3 18.73 C 5.31354 km/h
325 03-07-2020 00:00:00 17.73958 C 10.91 g/m*3 17.74 C 5.90243 km/h
Sensor: Nr:Datum:Temp:Abs-Feuchte:Windchill:Wind:
Aussen-T/F 326 04-07-2020 00:00:00 19.09826 C 11.22 g/m*3 19.1 C 9.03576 km/h
327 05-07-2020 00:00:00 22.80243 C 14.45 g/m*3 22.8 C 14.43472 km/h
328 06-07-2020 00:00:00 16.79653 C 9.41 g/m*3 16.8 C 9.54965 km/h
329 07-07-2020 00:00:00 16.09792 C 9.28 g/m*3 16.1 C 4.51979 km/h
330 08-07-2020 00:00:00 15.87639 C 11.63 g/m*3 15.88 C 2.19965 km/h
331 09-07-2020 00:00:00 21.61424 C 14.17 g/m*3 21.61 C 7.27465 km/h
332 10-07-2020 00:00:00 18.63368 C 12.54 g/m*3 18.63 C 7.30625 km/h
333 11-07-2020 00:00:00 16.57431 C 9.5 g/m*3 16.57 C 5.36806 km/h
334 12-07-2020 00:00:00 16.85382 C 9.47 g/m*3 16.85 C 4.99965 km/h
335 13-07-2020 00:00:00 19.08542 C 9.77 g/m*3 19.09 C 3.90694 km/h
336 14-07-2020 00:00:00 18.66215 C 10.73 g/m*3 18.66 C 4.1316 km/h
337 15-07-2020 00:00:00 17.55208 C 10.88 g/m*3 17.55 C 7.17049 km/h
338 16-07-2020 00:00:00 16.0875 C 12.17 g/m*3 16.09 C 3.15556 km/h
339 17-07-2020 00:00:00 18.58611 C 12.76 g/m*3 18.59 C 4.21146 km/h
340 18-07-2020 00:00:00 19.51944 C 12.49 g/m*3 19.52 C 2.44375 km/h
341 19-07-2020 00:00:00 22.30451 C 12.45 g/m*3 22.3 C 4.27847 km/h
342 20-07-2020 00:00:00 19.42708 C 11.97 g/m*3 19.43 C 5.98542 km/h
343 21-07-2020 00:00:00 17.64722 C 9.36 g/m*3 17.65 C 6.82917 km/h
344 22-07-2020 00:00:00 17.13264 C 9.19 g/m*3 17.13 C 4.72708 km/h
345 23-07-2020 00:00:00 18.84618 C 9.69 g/m*3 18.85 C 3.73542 km/h
346 24-07-2020 00:00:00 21.21007 C 10.98 g/m*3 21.21 C 5.5434 km/h
347 25-07-2020 00:00:00 21.01562 C 12.46 g/m*3 21.02 C 5.85486 km/h
348 26-07-2020 00:00:00 20.87674 C 12.83 g/m*3 20.88 C 8.55556 km/h
349 27-07-2020 00:00:00 21.66215 C 12.17 g/m*3 21.66 C 4.14063 km/h
350 28-07-2020 00:00:00 22.91424 C 11.11 g/m*3 22.91 C 8.9559 km/h
Sensor: Nr:Datum:Temp:Abs-Feuchte:Windchill:Wind:
Aussen-T/F 351 29-07-2020 00:00:00 18.94583 C 10.01 g/m*3 18.95 C 5.47014 km/h
352 30-07-2020 00:00:00 20.4309 C 10.48 g/m*3 20.43 C 3.57708 km/h
353 31-07-2020 00:00:00 24.16007 C 11.62 g/m*3 24.16 C 4.00486 km/h
354 01-08-2020 00:00:00 21.98437 C 15.22 g/m*3 21.98 C 4.02361 km/h
355 02-08-2020 00:00:00 21.28472 C 13.76 g/m*3 21.28 C 6.21458 km/h
356 03-08-2020 00:00:00 18.1684 C 11.28 g/m*3 18.17 C 2.92361 km/h
357 04-08-2020 00:00:00 19.15486 C 10.65 g/m*3 19.15 C 6.45208 km/h
358 05-08-2020 00:00:00 19.44549 C 10.24 g/m*3 19.45 C 3.93229 km/h
359 06-08-2020 00:00:00 21.8184 C 11.42 g/m*3 21.82 C 3.88889 km/h
360 07-08-2020 00:00:00 23.97535 C 12.92 g/m*3 23.98 C 3.60313 km/h
361 08-08-2020 00:00:00 26.13125 C 14.27 g/m*3 26.13 C 2.67743 km/h
362 09-08-2020 00:00:00 24.35937 C 14.79 g/m*3 24.36 C 2.33125 km/h
363 10-08-2020 00:00:00 25.68472 C 16.31 g/m*3 25.68 C 5.31979 km/h
364 11-08-2020 00:00:00 25.77396 C 16.38 g/m*3 25.77 C 4.50417 km/h
365 12-08-2020 00:00:00 23.65799 C 17.61 g/m*3 23.66 C 4.37049 km/h
366 13-08-2020 00:00:00 23.34201 C 17.36 g/m*3 23.34 C 4.0875 km/h
367 14-08-2020 00:00:00 23.16285 C 16 g/m*3 23.16 C 4.93507 km/h
368 15-08-2020 00:00:00 21.83368 C 16.27 g/m*3 21.83 C 1.87465 km/h
369 16-08-2020 00:00:00 22.52535 C 15.98 g/m*3 22.53 C 4.53715 km/h
370 17-08-2020 00:00:00 21.08056 C 15.08 g/m*3 21.08 C 5.46771 km/h
371 18-08-2020 00:00:00 19.08924 C 13.44 g/m*3 19.09 C 5.45035 km/h
372 19-08-2020 00:00:00 19.13125 C 13.6 g/m*3 19.13 C 2.6 km/h
373 20-08-2020 00:00:00 23.86042 C 16.77 g/m*3 23.86 C 3.63333 km/h
374 21-08-2020 00:00:00 25.27743 C 16.68 g/m*3 25.28 C 3.1684 km/h
375 22-08-2020 00:00:00 22.45625 C 13.37 g/m*3 22.46 C 8.48924 km/h
Sensor: Nr:Datum:Temp:Abs-Feuchte:Windchill:Wind:
Aussen-T/F 376 23-08-2020 00:00:00 19.15764 C 11.48 g/m*3 19.16 C 8.00417 km/h
377 24-08-2020 00:00:00 18.23437 C 11.11 g/m*3 18.23 C 7.39236 km/h
378 25-08-2020 00:00:00 19.07917 C 11.78 g/m*3 19.08 C 2.38854 km/h
379 26-08-2020 00:00:00 20.74132 C 10.59 g/m*3 20.74 C 17.51354 km/h
380 27-08-2020 00:00:00 18.39271 C 10.85 g/m*3 18.39 C 4.98194 km/h
381 28-08-2020 00:00:00 17.86667 C 11.89 g/m*3 17.87 C 5.87326 km/h
382 29-08-2020 00:00:00 16.24479 C 10.69 g/m*3 16.24 C 6.83125 km/h
383 30-08-2020 00:00:00 15.77153 C 10.79 g/m*3 15.77 C 3.10139 km/h
384 31-08-2020 00:00:00 15.63437 C 11.83 g/m*3 15.63 C 1.73993 km/h
385 01-09-2020 00:00:00 15.08889 C 11.37 g/m*3 15.09 C 2.16007 km/h
386 02-09-2020 00:00:00 15.65833 C 10.57 g/m*3 15.66 C 1.79826 km/h
387 03-09-2020 00:00:00 14.23542 C 10.76 g/m*3 14.24 C 2.02188 km/h
388 04-09-2020 00:00:00 20.30278 C 14.14 g/m*3 20.3 C 2.91528 km/h
389 05-09-2020 00:00:00 16.89688 C 11.32 g/m*3 16.9 C 5.12153 km/h
390 06-09-2020 00:00:00 13.28021 C 8.89 g/m*3 13.28 C 1.89306 km/h
391 07-09-2020 00:00:00 14.01493 C 9.14 g/m*3 14.01 C 1.69861 km/h
392 08-09-2020 00:00:00 16.29826 C 10.22 g/m*3 16.3 C 3.6691 km/h
393 09-09-2020 00:00:00 18.26667 C 12.68 g/m*3 18.27 C 2.00243 km/h
394 10-09-2020 00:00:00 17.81319 C 11.11 g/m*3 17.81 C 4.58264 km/h
395 11-09-2020 00:00:00 15.1066 C 9.78 g/m*3 15.11 C 1.90382 km/h
396 12-09-2020 00:00:00 17.20625 C 11.1 g/m*3 17.21 C 2.67917 km/h
397 13-09-2020 00:00:00 17.20486 C 10.98 g/m*3 17.2 C 1.15799 km/h
398 14-09-2020 00:00:00 18.81806 C 11.85 g/m*3 18.82 C 1.44514 km/h
399 15-09-2020 00:00:00 20.38194 C 12.5 g/m*3 20.38 C 1.33438 km/h
400 16-09-2020 00:00:00 20.67049 C 13.3 g/m*3 20.67 C 2.85139 km/h
Sensor: Nr:Datum:Temp:Abs-Feuchte:Windchill:Wind:
Aussen-T/F 401 17-09-2020 00:00:00 17.93958 C 9.81 g/m*3 17.94 C 7.81493 km/h
402 18-09-2020 00:00:00 15.74687 C 8.85 g/m*3 15.75 C 5.23993 km/h
403 19-09-2020 00:00:00 15.73333 C 8.37 g/m*3 15.73 C 3.23229 km/h
404 20-09-2020 00:00:00 14.83056 C 8.79 g/m*3 14.83 C 0.98333 km/h
405 21-09-2020 00:00:00 14.75174 C 8.82 g/m*3 14.75 C 1.3875 km/h
406 22-09-2020 00:00:00 16.10521 C 9.55 g/m*3 16.11 C 2.65486 km/h
407 23-09-2020 00:00:00 17.57639 C 10.33 g/m*3 17.58 C 4.72743 km/h
408 24-09-2020 00:00:00 16.23021 C 10.63 g/m*3 16.23 C 6.51458 km/h
409 25-09-2020 00:00:00 12.16979 C 8.92 g/m*3 12.17 C 6.2375 km/h
410 26-09-2020 00:00:00 10.52674 C 8.57 g/m*3 9.23 C 10.16528 km/h
411 27-09-2020 00:00:00 11.00694 C 9.2 g/m*3 11.01 C 3.05417 km/h
412 28-09-2020 00:00:00 11.72882 C 9.12 g/m*3 11.73 C 2.08542 km/h
413 29-09-2020 00:00:00 12.13333 C 10.11 g/m*3 12.13 C 2.01181 km/h
414 30-09-2020 00:00:00 14.10799 C 11.27 g/m*3 14.11 C 1.49028 km/h
415 01-10-2020 00:00:00 12.57465 C 10.28 g/m*3 12.57 C 1.79167 km/h
416 02-10-2020 00:00:00 13.41493 C 10.32 g/m*3 13.41 C 3.99028 km/h
417 03-10-2020 00:00:00 13.37049 C 10.26 g/m*3 13.37 C 4.70139 km/h
418 04-10-2020 00:00:00 11.79861 C 9.09 g/m*3 11.8 C 5.03785 km/h
419 05-10-2020 00:00:00 11.07257 C 9.18 g/m*3 11.07 C 4.18125 km/h
420 06-10-2020 00:00:00 13.11389 C 10.11 g/m*3 13.11 C 9.72361 km/h
421 07-10-2020 00:00:00 13.19444 C 9.43 g/m*3 13.19 C 10.52674 km/h
422 08-10-2020 00:00:00 13.25243 C 10.22 g/m*3 13.25 C 9.92882 km/h
423 09-10-2020 00:00:00 12.99063 C 10.74 g/m*3 12.99 C 3.04167 km/h
424 10-10-2020 00:00:00 9.91979 C 8.09 g/m*3 9.53 C 5.46806 km/h
425 11-10-2020 00:00:00 10.06944 C 7.91 g/m*3 10.07 C 3.7941 km/h
Sensor: Nr:Datum:Temp:Abs-Feuchte:Windchill:Wind:
Aussen-T/F 426 12-10-2020 00:00:00 9.40799 C 8.28 g/m*3 9.41 C 2.21146 km/h
427 13-10-2020 00:00:00 7.37361 C 7.35 g/m*3 7.37 C 1.675 km/h
428 14-10-2020 00:00:00 7.7559 C 7.3 g/m*3 7.76 C 3.28819 km/h
429 15-10-2020 00:00:00 9.09444 C 8.18 g/m*3 9.09 C 2.88958 km/h
430 16-10-2020 00:00:00 9.26007 C 8.27 g/m*3 9.26 C 1.825 km/h
431 17-10-2020 00:00:00 6.19618 C 6.87 g/m*3 6.2 C 0.83403 km/h
432 18-10-2020 00:00:00 8.18958 C 7.58 g/m*3 8.19 C 3.07847 km/h
433 19-10-2020 00:00:00 8.62604 C 7.89 g/m*3 8.63 C 1.77847 km/h
434 20-10-2020 00:00:00 8.95714 C 8.23 g/m*3 8.96 C 1.27108 km/h
435 21-10-2020 00:00:00 15.08611 C 10.6 g/m*3 15.09 C 3.43924 km/h
436 22-10-2020 00:00:00 16.18681 C 11.86 g/m*3 16.19 C 3.23125 km/h
437 23-10-2020 00:00:00 15.0691 C 11.94 g/m*3 15.07 C 1.57049 km/h
438 24-10-2020 00:00:00 13.40799 C 10.12 g/m*3 13.41 C 5.98194 km/h
439 25-10-2020 00:00:00 13.16458 C 9.89 g/m*3 13.16 C 2.75104 km/h
440 26-10-2020 00:00:00 10.20313 C 8.43 g/m*3 10.2 C 3.64583 km/h
441 27-10-2020 00:00:00 10.44514 C 8.03 g/m*3 10.45 C 4.82604 km/h
442 28-10-2020 00:00:00 12.59861 C 9.23 g/m*3 12.6 C 6.52049 km/h
443 29-10-2020 00:00:00 10.65347 C 9 g/m*3 10.04 C 6.76285 km/h
444 30-10-2020 00:00:00 13.81667 C 10.81 g/m*3 13.82 C 7.83611 km/h
445 31-10-2020 00:00:00 13.1434 C 9.98 g/m*3 13.14 C 3.45035 km/h
446 01-11-2020 00:00:00 15.18715 C 11.89 g/m*3 15.19 C 6.08715 km/h
447 02-11-2020 00:00:00 18.53125 C 12.8 g/m*3 18.53 C 13.2875 km/h
448 03-11-2020 00:00:00 10.3559 C 8.24 g/m*3 10.11 C 5.15382 km/h
449 04-11-2020 00:00:00 4.54444 C 6.28 g/m*3 4.54 C 0.86667 km/h
450 05-11-2020 00:00:00 3.1178 C 5.8 g/m*3 3.12 C 0.73898 km/h
Sensor: Nr:Datum:Temp:Abs-Feuchte:Windchill:Wind:
Aussen-T/F 451 06-11-2020 00:00:00 3.23681 C 5.88 g/m*3 3.24 C 1.18333 km/h
452 07-11-2020 00:00:00 4.20285 C 6.18 g/m*3 4.2 C 1.19573 km/h
453 08-11-2020 00:00:00 7.08472 C 7.39 g/m*3 7.08 C 0 km/h
454 09-11-2020 00:00:00 9.85972 C 8.93 g/m*3 9.86 C 0.26701 km/h
455 10-11-2020 00:00:00 7.08333 C 7.56 g/m*3 7.08 C 0.01667 km/h
456 11-11-2020 00:00:00 9.01875 C 8.34 g/m*3 9.02 C 2.23264 km/h
457 12-11-2020 00:00:00 9.26458 C 8.1 g/m*3 9.26 C 3.0566 km/h
458 13-11-2020 00:00:00 6.6191 C 7.24 g/m*3 6.62 C 0.48889 km/h
459 14-11-2020 00:00:00 10.4625 C 9 g/m*3 10.46 C 1.51354 km/h
460 15-11-2020 00:00:00 13.18819 C 9.92 g/m*3 13.19 C 4.00243 km/h
461 16-11-2020 00:00:00 10.81736 C 8.52 g/m*3 9.48 C 10.79271 km/h
462 17-11-2020 00:00:00 11.47778 C 8.76 g/m*3 11.48 C 8.51979 km/h
463 18-11-2020 00:00:00 9.90625 C 8.37 g/m*3 9.91 C 1.85 km/h
464 19-11-2020 00:00:00 8.99688 C 7.8 g/m*3 7.89 C 7.74306 km/h
465 20-11-2020 00:00:00 4.04167 C 5.9 g/m*3 4.04 C 2.40313 km/h
466 21-11-2020 00:00:00 3.39688 C 5.47 g/m*3 3.4 C 3.25903 km/h
467 22-11-2020 00:00:00 7.66701 C 6.84 g/m*3 5.58 C 11.4559 km/h
468 23-11-2020 00:00:00 7.74201 C 7.38 g/m*3 7.74 C 3.77917 km/h
469 24-11-2020 00:00:00 6.32917 C 6.81 g/m*3 6.33 C 1.77986 km/h
470 25-11-2020 00:00:00 4.53125 C 6.15 g/m*3 4.53 C 0.70139 km/h
471 26-11-2020 00:00:00 3.39653 C 5.79 g/m*3 3.4 C 1.24549 km/h
472 27-11-2020 00:00:00 3.65278 C 5.83 g/m*3 3.65 C 1.20035 km/h
473 28-11-2020 00:00:00 3.30521 C 5.6 g/m*3 3.31 C 2.09618 km/h
474 29-11-2020 00:00:00 0.89479 C 4.42 g/m*3 0.89 C 3.54375 km/h
475 30-11-2020 00:00:00 -1.56215 C 4.02 g/m*3 -1.56 C 4.05417 km/h
Sensor: Nr:Datum:Temp:Abs-Feuchte:Windchill:Wind:
Aussen-T/F 476 01-12-2020 00:00:00 2.81111 C 5.62 g/m*3 2.81 C 3.11563 km/h
477 02-12-2020 00:00:00 2.83889 C 5.63 g/m*3 2.84 C 0.50069 km/h
478 03-12-2020 00:00:00 3.59132 C 5.69 g/m*3 3.59 C 3.66944 km/h
479 04-12-2020 00:00:00 4.57361 C 6.21 g/m*3 4.57 C 4.0434 km/h
480 05-12-2020 00:00:00 4.12778 C 6.14 g/m*3 4.13 C 0.80104 km/h
481 06-12-2020 00:00:00 3.92917 C 6.1 g/m*3 3.93 C 0.6 km/h
482 07-12-2020 00:00:00 4.18854 C 6.12 g/m*3 4.19 C 2.85451 km/h
483 08-12-2020 00:00:00 3.36667 C 5.64 g/m*3 3.37 C 1.2316 km/h
484 09-12-2020 00:00:00 2.17326 C 5.2 g/m*3 2.17 C 2.31875 km/h
485 10-12-2020 00:00:00 0.38125 C 4.65 g/m*3 0.38 C 0.52222 km/h
486 11-12-2020 00:00:00 2.71597 C 5.29 g/m*3 2.72 C 3.92118 km/h
487 12-12-2020 00:00:00 6.01111 C 6.89 g/m*3 6.01 C 0.17222 km/h
488 13-12-2020 00:00:00 5.90799 C 6.84 g/m*3 5.91 C 2.30521 km/h
489 14-12-2020 00:00:00 6.08576 C 6.6 g/m*3 6.09 C 1.23472 km/h
490 15-12-2020 00:00:00 7.82014 C 7.84 g/m*3 7.82 C 0.87257 km/h
491 16-12-2020 00:00:00 7.48125 C 7.77 g/m*3 7.48 C 1.33438 km/h
492 17-12-2020 00:00:00 7.2309 C 7.48 g/m*3 7.23 C 3.21736 km/h
493 18-12-2020 00:00:00 4.31771 C 6.31 g/m*3 4.32 C 0.91875 km/h
494 19-12-2020 00:00:00 6.22292 C 6.99 g/m*3 6.22 C 2.33125 km/h
495 20-12-2020 00:00:00 7.98889 C 7.77 g/m*3 7.99 C 1.88681 km/h
496 21-12-2020 00:00:00 7.12639 C 7.44 g/m*3 7.13 C 1.81632 km/h
497 22-12-2020 00:00:00 13.11875 C 10.58 g/m*3 13.12 C 11.07153 km/h
498 23-12-2020 00:00:00 11.78889 C 10.17 g/m*3 11.79 C 3.35243 km/h
499 24-12-2020 00:00:00 6.83681 C 6.92 g/m*3 5.18 C 8.46944 km/h
500 25-12-2020 00:00:00 3.34653 C 5.57 g/m*3 3.35 C 4.76597 km/h
Sensor: Nr:Datum:Temp:Abs-Feuchte:Windchill:Wind:
Aussen-T/F 501 26-12-2020 00:00:00 2.93368 C 5.31 g/m*3 1.57 C 5.40313 km/h
502 27-12-2020 00:00:00 3.76528 C 5.54 g/m*3 1.83 C 7.48889 km/h
503 28-12-2020 00:00:00 3.67431 C 5.96 g/m*3 3.67 C 1.42951 km/h
504 29-12-2020 00:00:00 2.99375 C 5.59 g/m*3 2.99 C 4.11563 km/h
505 30-12-2020 00:00:00 3.90938 C 5.81 g/m*3 3.91 C 3.58611 km/h
506 31-12-2020 00:00:00 2.97986 C 5.53 g/m*3 2.98 C 0.83403 km/h
507 01-01-2021 00:00:00 2.09757 C 5.39 g/m*3 2.1 C 0.48889 km/h
508 02-01-2021 00:00:00 1.36771 C 5.11 g/m*3 1.37 C 1.04444 km/h
509 03-01-2021 00:00:00 2.60903 C 5.25 g/m*3 2.61 C 1.92639 km/h
510 04-01-2021 00:00:00 1.67326 C 5.23 g/m*3 1.67 C 0.16111 km/h
511 05-01-2021 00:00:00 2.52431 C 5.48 g/m*3 2.52 C 0.38368 km/h
512 06-01-2021 00:00:00 2.73333 C 5.49 g/m*3 2.73 C 2.58472 km/h
513 07-01-2021 00:00:00 2.03368 C 5.13 g/m*3 0.45 C 5.63299 km/h
514 08-01-2021 00:00:00 1.95556 C 5.27 g/m*3 1.96 C 3.92118 km/h
515 09-01-2021 00:00:00 1.34271 C 5 g/m*3 1.34 C 0.99063 km/h
516 10-01-2021 00:00:00 0.68472 C 4.71 g/m*3 0.68 C 0.51667 km/h
517 11-01-2021 00:00:00 -0.44062 C 4.24 g/m*3 -0.44 C 3.43576 km/h
518 12-01-2021 00:00:00 3.87847 C 5.74 g/m*3 0.48 C 14.31424 km/h
519 13-01-2021 00:00:00 2.46875 C 5.1 g/m*3 0.17 C 7.98368 km/h
520 14-01-2021 00:00:00 2.00556 C 4.78 g/m*3 2.01 C 3.29306 km/h
521 15-01-2021 00:00:00 0.32431 C 4.31 g/m*3 0.32 C 2.99722 km/h
522 16-01-2021 00:00:00 0.42812 C 4.13 g/m*3 0.43 C 2.00035 km/h
523 17-01-2021 00:00:00 0.51181 C 4.78 g/m*3 0.51 C 0.83889 km/h
524 18-01-2021 00:00:00 3.81701 C 5.75 g/m*3 1.14 C 10.44931 km/h
525 19-01-2021 00:00:00 5.13611 C 5.81 g/m*3 1.48 C 18.11319 km/h
Sensor: Nr:Datum:Temp:Abs-Feuchte:Windchill:Wind:
Aussen-T/F 526 20-01-2021 00:00:00 6.33056 C 6.06 g/m*3 6.33 C 2.75417 km/h
527 21-01-2021 00:00:00 8.93368 C 7.12 g/m*3 7.66 C 8.425 km/h
528 22-01-2021 00:00:00 5.72396 C 6.54 g/m*3 5.72 C 4.93958 km/h
529 23-01-2021 00:00:00 4.06493 C 5.91 g/m*3 4.06 C 2.17917 km/h
530 24-01-2021 00:00:00 2.12708 C 5.13 g/m*3 -0.06 C 7.40764 km/h
531 25-01-2021 00:00:00 1.33611 C 4.95 g/m*3 1.34 C 3.10799 km/h
532 26-01-2021 00:00:00 3.28854 C 5.12 g/m*3 0.08 C 12.50764 km/h
533 27-01-2021 00:00:00 2.29201 C 5.26 g/m*3 0.33 C 6.80069 km/h
534 28-01-2021 00:00:00 7.12014 C 7.32 g/m*3 5.58 C 8.17292 km/h
535 29-01-2021 00:00:00 8.84861 C 7.84 g/m*3 7.37 C 9.37882 km/h
536 30-01-2021 00:00:00 4.08715 C 5.94 g/m*3 2.71 C 5.89028 km/h
537 31-01-2021 00:00:00 1.01563 C 4.75 g/m*3 1.02 C 3.0691 km/h
538 01-02-2021 00:00:00 3.89132 C 6.09 g/m*3 3.89 C 0.50556 km/h
539 02-02-2021 00:00:00 7.66319 C 7.66 g/m*3 7.66 C 4.7059 km/h
540 03-02-2021 00:00:00 9.71944 C 8.69 g/m*3 8.81 C 7.37257 km/h
541 04-02-2021 00:00:00 6.63229 C 6.74 g/m*3 5.49 C 6.36007 km/h
542 05-02-2021 00:00:00 6.42708 C 7.17 g/m*3 6.43 C 0.39444 km/h
543 06-02-2021 00:00:00 5.10799 C 6.57 g/m*3 5.11 C 4.53368 km/h
544 07-02-2021 00:00:00 1.10556 C 4.97 g/m*3 -1.05 C 6.80382 km/h
545 08-02-2021 00:00:00 -3.50382 C 3.33 g/m*3 -6.19 C 6.30174 km/h
546 09-02-2021 00:00:00 -4.71007 C 2.78 g/m*3 -4.71 C 4.2184 km/h
547 10-02-2021 00:00:00 -5.63507 C 2.57 g/m*3 -8.41 C 5.80521 km/h
548 11-02-2021 00:00:00 -3.28646 C 3.22 g/m*3 -3.29 C 2.92708 km/h
549 12-02-2021 00:00:00 -4.72708 C 2.76 g/m*3 -7.18 C 5.43333 km/h
550 13-02-2021 00:00:00 -5.43715 C 2.6 g/m*3 -5.44 C 4.15972 km/h
Sensor: Nr:Datum:Temp:Abs-Feuchte:Windchill:Wind:
Aussen-T/F 551 14-02-2021 00:00:00 -3.78299 C 2.97 g/m*3 -3.78 C 3.77639 km/h
552 15-02-2021 00:00:00 0.83194 C 4.03 g/m*3 0.83 C 3.01076 km/h
553 16-02-2021 00:00:00 5.64757 C 6.68 g/m*3 5.65 C 2.22083 km/h
554 17-02-2021 00:00:00 7.15451 C 7.09 g/m*3 6.09 C 6.37882 km/h
555 18-02-2021 00:00:00 4.16806 C 5.98 g/m*3 4.17 C 1.98299 km/h
556 19-02-2021 00:00:00 6.25486 C 6.54 g/m*3 6.25 C 3.35313 km/h
557 20-02-2021 00:00:00 6.97083 C 6.8 g/m*3 6.97 C 2.57396 km/h
558 21-02-2021 00:00:00 7.73056 C 6.69 g/m*3 7.73 C 2.58576 km/h
559 22-02-2021 00:00:00 6.65069 C 6.65 g/m*3 6.65 C 0.62222 km/h
560 23-02-2021 00:00:00 11.51076 C 8.49 g/m*3 11.51 C 2.42118 km/h
561 24-02-2021 00:00:00 10.01771 C 8.19 g/m*3 10.02 C 0.61875 km/h
562 25-02-2021 00:00:00 9.55417 C 7.4 g/m*3 9.55 C 1.55729 km/h
563 26-02-2021 00:00:00 7.00972 C 6.81 g/m*3 7.01 C 3.14549 km/h
564 27-02-2021 00:00:00 4.3559 C 5.65 g/m*3 4.36 C 2.49097 km/h
565 28-02-2021 00:00:00 5.84236 C 5.47 g/m*3 5.84 C 3.60833 km/h
566 01-03-2021 00:00:00 4.21632 C 5.4 g/m*3 4.22 C 2.37847 km/h
567 02-03-2021 00:00:00 5.65937 C 5.96 g/m*3 5.66 C 1.23507 km/h
568 03-03-2021 00:00:00 6.83889 C 6.33 g/m*3 6.84 C 0.12257 km/h
569 04-03-2021 00:00:00 6.55764 C 6.74 g/m*3 6.56 C 3.55313 km/h
570 05-03-2021 00:00:00 3.77535 C 4.98 g/m*3 2.49 C 5.53229 km/h
571 06-03-2021 00:00:00 0.57465 C 3.84 g/m*3 0.57 C 2.44063 km/h
572 07-03-2021 00:00:00 0.7691 C 3.86 g/m*3 0.77 C 2.72396 km/h
573 08-03-2021 00:00:00 1.04618 C 4.49 g/m*3 1.05 C 1.37882 km/h
574 09-03-2021 00:00:00 3.11875 C 5.52 g/m*3 3.12 C 3.20972 km/h
575 10-03-2021 00:00:00 6.84306 C 6.46 g/m*3 6.84 C 4.01632 km/h
Sensor: Nr:Datum:Temp:Abs-Feuchte:Windchill:Wind:
Aussen-T/F 576 11-03-2021 00:00:00 9.20314 C 7.48 g/m*3 6.86 C 15.55366 km/h
577 12-03-2021 00:00:00 7.43993 C 6.26 g/m*3 4.47 C 17.16042 km/h
578 13-03-2021 00:00:00 7.28785 C 6.56 g/m*3 4.45 C 15.90972 km/h
579 14-03-2021 00:00:00 5.28681 C 6.04 g/m*3 3.05 C 9.75208 km/h
580 15-03-2021 00:00:00 5.93368 C 6.34 g/m*3 3.58 C 10.97049 km/h
581 16-03-2021 00:00:00 5.88194 C 6.21 g/m*3 4.47 C 6.89375 km/h
582 17-03-2021 00:00:00 4.87465 C 5.76 g/m*3 3.68 C 5.70139 km/h
583 18-03-2021 00:00:00 3.22188 C 5.22 g/m*3 3.22 C 2.85868 km/h
584 19-03-2021 00:00:00 3.84687 C 4.87 g/m*3 1.93 C 7.48194 km/h
585 20-03-2021 00:00:00 3.32257 C 4.42 g/m*3 3.32 C 3.30972 km/h
586 21-03-2021 00:00:00 6.1125 C 5.79 g/m*3 4.38 C 8.22882 km/h
587 22-03-2021 00:00:00 5.83993 C 5.87 g/m*3 4.54 C 6.48854 km/h
588 23-03-2021 00:00:00 6.76528 C 5.9 g/m*3 6.77 C 3.50764 km/h
589 24-03-2021 00:00:00 7.14167 C 5.95 g/m*3 7.14 C 4.22708 km/h
590 25-03-2021 00:00:00 8.49722 C 6.82 g/m*3 8.5 C 3.22431 km/h
591 26-03-2021 00:00:00 9.88403 C 7.14 g/m*3 9.88 C 4.49097 km/h
592 27-03-2021 00:00:00 7.20521 C 6.21 g/m*3 4.85 C 12.49097 km/h
593 28-03-2021 00:00:00 9.55036 C 6.58 g/m*3 8.36 C 8.58261 km/h
594 29-03-2021 00:00:00 11.67292 C 6.87 g/m*3 11.67 C 4.90069 km/h
595 30-03-2021 00:00:00 11.68646 C 6.84 g/m*3 11.69 C 2.11215 km/h
596 31-03-2021 00:00:00 13.42674 C 7.38 g/m*3 13.43 C 2.87361 km/h
597 01-04-2021 00:00:00 13.89479 C 8 g/m*3 13.89 C 5.97882 km/h
598 02-04-2021 00:00:00 7.69549 C 5.85 g/m*3 6.16 C 8.63021 km/h
599 03-04-2021 00:00:00 8.11632 C 5.29 g/m*3 6.65 C 8.66354 km/h
600 04-04-2021 00:00:00 5.18472 C 5.34 g/m*3 5.18 C 4.87118 km/h
Sensor: Nr:Datum:Temp:Abs-Feuchte:Windchill:Wind:
Aussen-T/F 601 05-04-2021 00:00:00 3.5066 C 5.08 g/m*3 0.64 C 11.04618 km/h
602 06-04-2021 00:00:00 3.10833 C 4.54 g/m*3 -0.12 C 12.41181 km/h
603 07-04-2021 00:00:00 2.56146 C 4.68 g/m*3 -0.72 C 12.11146 km/h
604 08-04-2021 00:00:00 5.13542 C 4.48 g/m*3 3.33 C 7.87361 km/h
605 09-04-2021 00:00:00 7.67569 C 5.32 g/m*3 7.02 C 5.28299 km/h
606 10-04-2021 00:00:00 9.22222 C 8.4 g/m*3 9.22 C 1.18403 km/h
607 11-04-2021 00:00:00 6.60278 C 7.19 g/m*3 6.6 C 4.95972 km/h
608 12-04-2021 00:00:00 4.1684 C 5.57 g/m*3 4.17 C 4.32639 km/h
609 13-04-2021 00:00:00 3.34167 C 4.98 g/m*3 3.34 C 3.61632 km/h
610 14-04-2021 00:00:00 3.12951 C 4.75 g/m*3 3.13 C 3.88542 km/h
611 15-04-2021 00:00:00 3.68819 C 5.09 g/m*3 3.69 C 3.12118 km/h
612 16-04-2021 00:00:00 5.33542 C 5.22 g/m*3 5.34 C 3.51285 km/h
613 17-04-2021 00:00:00 7.09653 C 5.49 g/m*3 6.17 C 5.88438 km/h
614 18-04-2021 00:00:00 8.96424 C 6.75 g/m*3 8.96 C 2.73646 km/h
615 19-04-2021 00:00:00 10.27361 C 7.94 g/m*3 10.27 C 2.30833 km/h
616 20-04-2021 00:00:00 9.49931 C 7 g/m*3 9.5 C 1.27014 km/h
617 21-04-2021 00:00:00 10.74375 C 7.19 g/m*3 10.74 C 4.1559 km/h
618 22-04-2021 00:00:00 8.7816 C 5.49 g/m*3 7.62 C 7.78299 km/h
619 23-04-2021 00:00:00 8.16632 C 5.66 g/m*3 8.17 C 3.86354 km/h
620 24-04-2021 00:00:00 9.06042 C 5.94 g/m*3 9.06 C 4.74271 km/h
621 25-04-2021 00:00:00 8.31076 C 5.47 g/m*3 7.66 C 5.55833 km/h
622 26-04-2021 00:00:00 8.13646 C 4.8 g/m*3 7.29 C 6.14479 km/h
623 27-04-2021 00:00:00 10.01632 C 4.89 g/m*3 9.49 C 6.01563 km/h
624 28-04-2021 00:00:00 11.48438 C 6.33 g/m*3 11.48 C 4.43889 km/h
625 29-04-2021 00:00:00 11.84201 C 7.06 g/m*3 11.84 C 12.02014 km/h
Sensor: Nr:Datum:Temp:Abs-Feuchte:Windchill:Wind:
Aussen-T/F 626 30-04-2021 00:00:00 8.08681 C 6.14 g/m*3 8.09 C 3.95208 km/h
627 01-05-2021 00:00:00 10.12083 C 6.33 g/m*3 9.78 C 5.36493 km/h
628 02-05-2021 00:00:00 8.56319 C 5.79 g/m*3 7.66 C 6.59236 km/h
629 03-05-2021 00:00:00 8.08958 C 5.62 g/m*3 7.18 C 6.33889 km/h
630 04-05-2021 00:00:00 11.0875 C 7.2 g/m*3 11.09 C 14.54444 km/h
631 05-05-2021 00:00:00 7.64479 C 6.14 g/m*3 5.69 C 10.66319 km/h
632 06-05-2021 00:00:00 7.87813 C 6.69 g/m*3 7.06 C 5.91215 km/h
633 07-05-2021 00:00:00 7.66736 C 6.41 g/m*3 6.56 C 6.81389 km/h
634 08-05-2021 00:00:00 9.96632 C 6.83 g/m*3 9.97 C 3.73576 km/h
635 09-05-2021 00:00:00 18.04653 C 10.08 g/m*3 18.05 C 6.30035 km/h
636 10-05-2021 00:00:00 17.83646 C 10.87 g/m*3 17.84 C 6.72951 km/h
637 11-05-2021 00:00:00 13.64132 C 11.16 g/m*3 13.64 C 1.67361 km/h
638 12-05-2021 00:00:00 14.16042 C 9.77 g/m*3 14.16 C 4.97743 km/h
639 13-05-2021 00:00:00 12.7441 C 8.61 g/m*3 12.74 C 3.80833 km/h
640 14-05-2021 00:00:00 13.14375 C 8.5 g/m*3 13.14 C 5.64861 km/h
641 15-05-2021 00:00:00 11.39861 C 8.97 g/m*3 11.4 C 4.22743 km/h
642 16-05-2021 00:00:00 11.40799 C 9.1 g/m*3 11.41 C 5.60833 km/h
643 17-05-2021 00:00:00 12.12326 C 9.24 g/m*3 12.12 C 8.30243 km/h
644 18-05-2021 00:00:00 10.75243 C 8.92 g/m*3 10.32 C 6.07847 km/h
645 19-05-2021 00:00:00 10.85243 C 8.61 g/m*3 10.32 C 6.54931 km/h
646 20-05-2021 00:00:00 12.43264 C 8.89 g/m*3 12.43 C 4.62257 km/h
647 21-05-2021 00:00:00 14.13958 C 8.32 g/m*3 14.14 C 10.73333 km/h
648 22-05-2021 00:00:00 11.75903 C 8.3 g/m*3 11.76 C 13.07014 km/h
649 23-05-2021 00:00:00 11.90069 C 8.03 g/m*3 11.9 C 9.21458 km/h
650 24-05-2021 00:00:00 11.46944 C 8.48 g/m*3 11.47 C 5.73194 km/h
Sensor: Nr:Datum:Temp:Abs-Feuchte:Windchill:Wind:
Aussen-T/F 651 25-05-2021 00:00:00 10.36424 C 8.17 g/m*3 8.79 C 11.73924 km/h
652 26-05-2021 00:00:00 10.95312 C 8.88 g/m*3 10.33 C 7.02257 km/h
653 27-05-2021 00:00:00 11.44896 C 8.99 g/m*3 11.45 C 7.41076 km/h
654 28-05-2021 00:00:00 13.48993 C 8.99 g/m*3 13.49 C 3.70486 km/h
655 29-05-2021 00:00:00 13.71181 C 8.47 g/m*3 13.71 C 5.0309 km/h
656 30-05-2021 00:00:00 14.68611 C 8.45 g/m*3 14.69 C 6.49792 km/h
657 31-05-2021 00:00:00 16.09722 C 9.03 g/m*3 16.1 C 5.125 km/h
658 01-06-2021 00:00:00 16.74132 C 9.13 g/m*3 16.74 C 5.05243 km/h
659 02-06-2021 00:00:00 18.31146 C 10.09 g/m*3 18.31 C 4.86701 km/h
660 03-06-2021 00:00:00 19.31597 C 14.06 g/m*3 19.32 C 2.38819 km/h
661 04-06-2021 00:00:00 19.49097 C 15.22 g/m*3 19.49 C 2.20417 km/h
662 05-06-2021 00:00:00 17.62465 C 13.72 g/m*3 17.62 C 3.38785 km/h
663 06-06-2021 00:00:00 15.63021 C 12.13 g/m*3 15.63 C 5.57743 km/h
664 07-06-2021 00:00:00 17.37188 C 13.22 g/m*3 17.37 C 2.78576 km/h
665 08-06-2021 00:00:00 18.99167 C 13.34 g/m*3 18.99 C 2.50938 km/h
666 09-06-2021 00:00:00 19.75347 C 13.08 g/m*3 19.75 C 3.59861 km/h
667 10-06-2021 00:00:00 20.5309 C 12.66 g/m*3 20.53 C 3.97743 km/h
668 11-06-2021 00:00:00 20.7809 C 13.27 g/m*3 20.78 C 3.30625 km/h
669 12-06-2021 00:00:00 19.39167 C 12.75 g/m*3 19.39 C 6.87049 km/h
670 13-06-2021 00:00:00 17.70799 C 9.99 g/m*3 17.71 C 4.7559 km/h
671 14-06-2021 00:00:00 19.1125 C 11.29 g/m*3 19.11 C 2.72743 km/h
672 15-06-2021 00:00:00 21.18333 C 13.27 g/m*3 21.18 C 3.97917 km/h
673 16-06-2021 00:00:00 23.67361 C 14.87 g/m*3 23.67 C 4.09479 km/h
674 17-06-2021 00:00:00 24.79931 C 16.38 g/m*3 24.8 C 3.51771 km/h
675 18-06-2021 00:00:00 25.62431 C 17.6 g/m*3 25.62 C 2.94653 km/h
Sensor: Nr:Datum:Temp:Abs-Feuchte:Windchill:Wind:
Aussen-T/F 676 19-06-2021 00:00:00 24.69757 C 16.26 g/m*3 24.7 C 3.33819 km/h
677 20-06-2021 00:00:00 22.50486 C 16.31 g/m*3 22.5 C 6.64653 km/h
678 21-06-2021 00:00:00 20.09757 C 14.31 g/m*3 20.1 C 9.32604 km/h
679 22-06-2021 00:00:00 15.5941 C 12.34 g/m*3 15.59 C 1.92292 km/h
680 23-06-2021 00:00:00 17.93021 C 13.31 g/m*3 17.93 C 4.35833 km/h
681 24-06-2021 00:00:00 17.02604 C 13.28 g/m*3 17.03 C 1.94688 km/h
682 25-06-2021 00:00:00 18.32326 C 12.63 g/m*3 18.32 C 4.44063 km/h
683 26-06-2021 00:00:00 18.14583 C 12.05 g/m*3 18.15 C 2.1684 km/h
684 27-06-2021 00:00:00 20.21875 C 14.32 g/m*3 20.22 C 2.91389 km/h
685 28-06-2021 00:00:00 20.21285 C 15.5 g/m*3 20.21 C 2.91215 km/h
686 29-06-2021 00:00:00 18.4441 C 14.44 g/m*3 18.44 C 4.45243 km/h
687 30-06-2021 00:00:00 16.35764 C 12.76 g/m*3 16.36 C 4.95208 km/h
688 01-07-2021 00:00:00 15.16146 C 11.47 g/m*3 15.16 C 4.44306 km/h
689 02-07-2021 00:00:00 17.66597 C 12.06 g/m*3 17.67 C 3.21389 km/h
690 03-07-2021 00:00:00 18.65035 C 13.3 g/m*3 18.65 C 1.77847 km/h
691 04-07-2021 00:00:00 18.04479 C 14.21 g/m*3 18.04 C 2.08889 km/h
692 05-07-2021 00:00:00 17.35104 C 13.64 g/m*3 17.35 C 2.06736 km/h
693 06-07-2021 00:00:00 17.76562 C 13.99 g/m*3 17.77 C 3.45174 km/h
694 07-07-2021 00:00:00 18.26319 C 13.29 g/m*3 18.26 C 2.64236 km/h
695 08-07-2021 00:00:00 16.6816 C 13.14 g/m*3 16.68 C 1.46389 km/h
696 09-07-2021 00:00:00 17.82292 C 13.68 g/m*3 17.82 C 3.13333 km/h
697 10-07-2021 00:00:00 18.66944 C 13.82 g/m*3 18.67 C 2.32604 km/h
698 11-07-2021 00:00:00 18.2066 C 13.98 g/m*3 18.21 C 1.57083 km/h
699 12-07-2021 00:00:00 18.59028 C 14.16 g/m*3 18.59 C 1.65833 km/h
700 13-07-2021 00:00:00 18.75347 C 15.08 g/m*3 18.75 C 1.39097 km/h
Sensor: Nr:Datum:Temp:Abs-Feuchte:Windchill:Wind:
Aussen-T/F 701 14-07-2021 00:00:00 16.93438 C 13.81 g/m*3 16.93 C 2.84722 km/h
702 15-07-2021 00:00:00 19.04028 C 14.41 g/m*3 19.04 C 2.32882 km/h
703 16-07-2021 00:00:00 18.48299 C 14.12 g/m*3 18.48 C 5.37014 km/h
704 17-07-2021 00:00:00 19.88681 C 14.39 g/m*3 19.89 C 5.26458 km/h
705 18-07-2021 00:00:00 20.82257 C 14.23 g/m*3 20.82 C 6.69063 km/h
706 19-07-2021 00:00:00 18.94792 C 13.09 g/m*3 18.95 C 5.35521 km/h
707 20-07-2021 00:00:00 17.74097 C 11.78 g/m*3 17.74 C 3.68924 km/h
708 21-07-2021 00:00:00 18.1066 C 11.55 g/m*3 18.11 C 3.13924 km/h
709 22-07-2021 00:00:00 18.83368 C 12.67 g/m*3 18.83 C 1.57083 km/h
710 23-07-2021 00:00:00 20.0434 C 13.41 g/m*3 20.04 C 2.2809 km/h
711 24-07-2021 00:00:00 18.05556 C 14.22 g/m*3 18.06 C 1.81597 km/h
712 25-07-2021 00:00:00 19.12254 C 14.63 g/m*3 19.12 C 3.21373 km/h
713 26-07-2021 00:00:00 19.75139 C 14.08 g/m*3 19.75 C 5.21181 km/h
714 27-07-2021 00:00:00 18.37014 C 13.79 g/m*3 18.37 C 3.20313 km/h
715 28-07-2021 00:00:00 18.33924 C 13.37 g/m*3 18.34 C 6.67326 km/h
716 29-07-2021 00:00:00 18.12465 C 11.91 g/m*3 18.12 C 7.2559 km/h
717 30-07-2021 00:00:00 18.71042 C 12.1 g/m*3 18.71 C 6.20035 km/h
718 31-07-2021 00:00:00 18.27676 C 11.33 g/m*3 18.28 C 9.38556 km/h
719 01-08-2021 00:00:00 17.03264 C 11.96 g/m*3 17.03 C 5.34028 km/h
720 02-08-2021 00:00:00 15.90278 C 12.39 g/m*3 15.9 C 3.55347 km/h
721 03-08-2021 00:00:00 16.08889 C 12.52 g/m*3 16.09 C 2.00139 km/h
722 04-08-2021 00:00:00 16.26181 C 12.55 g/m*3 16.26 C 1.64618 km/h
723 05-08-2021 00:00:00 17.575 C 13.18 g/m*3 17.58 C 1.77361 km/h
724 06-08-2021 00:00:00 18.07951 C 13.14 g/m*3 18.08 C 6.92743 km/h
725 07-08-2021 00:00:00 17.24306 C 12.51 g/m*3 17.24 C 2.12986 km/h
Sensor: Nr:Datum:Temp:Abs-Feuchte:Windchill:Wind:
Aussen-T/F 726 08-08-2021 00:00:00 16.03063 C 11.87 g/m*3 16.03 C 6.99373 km/h
727 09-08-2021 00:00:00 15.70461 C 11.41 g/m*3 15.7 C 3.17834 km/h
728 10-08-2021 00:00:00 17.57666 C 12.63 g/m*3 17.58 C 4.76272 km/h
729 11-08-2021 00:00:00 18.75245 C 13.7 g/m*3 18.75 C 0.79545 km/h
730 12-08-2021 00:00:00 20.1691 C 14.6 g/m*3 20.17 C 1.32153 km/h
731 13-08-2021 00:00:00 20.75729 C 15.18 g/m*3 20.76 C 2.97083 km/h
732 14-08-2021 00:00:00 19.68056 C 14.17 g/m*3 19.68 C 2.80625 km/h
733 15-08-2021 00:00:00 18.95486 C 13.82 g/m*3 18.95 C 1.39826 km/h
734 16-08-2021 00:00:00 16.7316 C 11.99 g/m*3 16.73 C 8.29201 km/h
735 17-08-2021 00:00:00 13.51285 C 10.47 g/m*3 13.51 C 7.6434 km/h
736 18-08-2021 00:00:00 16.68368 C 12.84 g/m*3 16.68 C 5.44896 km/h
737 19-08-2021 00:00:00 18.23472 C 13.36 g/m*3 18.23 C 6.95833 km/h
738 20-08-2021 00:00:00 17.56042 C 13.02 g/m*3 17.56 C 2.08472 km/h
739 21-08-2021 00:00:00 18.3684 C 13.73 g/m*3 18.37 C 1.52847 km/h
740 22-08-2021 00:00:00 18.26146 C 14.09 g/m*3 18.26 C 4.12014 km/h
741 23-08-2021 00:00:00 17.50521 C 13.23 g/m*3 17.51 C 2.96111 km/h
742 24-08-2021 00:00:00 15.66146 C 11.14 g/m*3 15.66 C 3.90313 km/h
743 25-08-2021 00:00:00 15.02708 C 10.55 g/m*3 15.03 C 1.83333 km/h
744 26-08-2021 00:00:00 16.40174 C 11.39 g/m*3 16.4 C 6.78056 km/h
745 27-08-2021 00:00:00 14.92917 C 11.24 g/m*3 14.93 C 5.78715 km/h
746 28-08-2021 00:00:00 15.44653 C 12.35 g/m*3 15.45 C 1.7809 km/h
747 29-08-2021 00:00:00 15.32778 C 12.24 g/m*3 15.33 C 5.13889 km/h
748 30-08-2021 00:00:00 17.17202 C 12.79 g/m*3 17.17 C 4.32294 km/h
749 31-08-2021 00:00:00 15.90451 C 11.81 g/m*3 15.9 C 4.22708 km/h
750 01-09-2021 00:00:00 15.32292 C 11.29 g/m*3 15.32 C 2.77882 km/h
Sensor: Nr:Datum:Temp:Abs-Feuchte:Windchill:Wind:
Aussen-T/F 751 02-09-2021 00:00:00 15.57326 C 11.45 g/m*3 15.57 C 2.15972 km/h
752 03-09-2021 00:00:00 15.62043 C 11.47 g/m*3 15.62 C 1.29574 km/h
753 04-09-2021 00:00:00 16.59444 C 12.1 g/m*3 16.59 C 1.47535 km/h
754 05-09-2021 00:00:00 16.91007 C 12.65 g/m*3 16.91 C 0.80069 km/h
755 06-09-2021 00:00:00 17.19123 C 12.79 g/m*3 17.19 C 1.01754 km/h
756 07-09-2021 00:00:00 17.42293 C 12.77 g/m*3 17.42 C 0.62556 km/h
757 08-09-2021 00:00:00 17.4852 C 12.38 g/m*3 17.49 C 1.72347 km/h
758 09-09-2021 00:00:00 18.16224 C 13.65 g/m*3 18.16 C 2.72517 km/h
759 10-09-2021 00:00:00 20.31875 C 15.55 g/m*3 20.32 C 3.35139 km/h
760 11-09-2021 00:00:00 18.95243 C 14.07 g/m*3 18.95 C 1.82674 km/h
761 12-09-2021 00:00:00 16.74271 C 11.85 g/m*3 16.74 C 2.36979 km/h
762 13-09-2021 00:00:00 14.9375 C 11.26 g/m*3 14.94 C 0.90069 km/h
763 14-09-2021 00:00:00 16.50764 C 13.03 g/m*3 16.51 C 0.66111 km/h
764 15-09-2021 00:00:00 19.16389 C 15.39 g/m*3 19.16 C 2.25938 km/h
765 16-09-2021 00:00:00 16.22812 C 12.2 g/m*3 16.23 C 3.74896 km/h
766 17-09-2021 00:00:00 14.5809 C 11.23 g/m*3 14.58 C 0.69549 km/h
767 18-09-2021 00:00:00 14.56979 C 11.26 g/m*3 14.57 C 0.18889 km/h
768 19-09-2021 00:00:00 13.99062 C 10.48 g/m*3 13.99 C 2.46319 km/h
769 20-09-2021 00:00:00 13.42153 C 9.74 g/m*3 13.42 C 2.05347 km/h
770 21-09-2021 00:00:00 12.21701 C 8.63 g/m*3 12.22 C 1.90556 km/h
771 22-09-2021 00:00:00 11.0684 C 9 g/m*3 11.07 C 0.24444 km/h
772 23-09-2021 00:00:00 13.46458 C 9.81 g/m*3 13.46 C 3.08611 km/h
773 24-09-2021 00:00:00 15.75139 C 11.46 g/m*3 15.75 C 5.2 km/h
774 25-09-2021 00:00:00 14.55035 C 11.21 g/m*3 14.55 C 0.02778 km/h
775 26-09-2021 00:00:00 16.16667 C 12.73 g/m*3 16.17 C 1.00764 km/h
Sensor: Nr:Datum:Temp:Abs-Feuchte:Windchill:Wind:
Aussen-T/F 776 27-09-2021 00:00:00 16.01493 C 12.56 g/m*3 16.01 C 1.86146 km/h
777 28-09-2021 00:00:00 12.70486 C 10.13 g/m*3 12.7 C 2.32951 km/h
778 29-09-2021 00:00:00 11.46528 C 9.04 g/m*3 11.47 C 5.54514 km/h
779 30-09-2021 00:00:00 10.65104 C 8.33 g/m*3 10.24 C 5.93819 km/h
780 01-10-2021 00:00:00 11.02917 C 8.66 g/m*3 11.03 C 2.28993 km/h
781 02-10-2021 00:00:00 15.01458 C 11.2 g/m*3 15.01 C 2.77188 km/h
782 03-10-2021 00:00:00 18.50799 C 12.03 g/m*3 18.51 C 7.05417 km/h
783 04-10-2021 00:00:00 13.61597 C 9.94 g/m*3 13.62 C 2.47778 km/h
784 05-10-2021 00:00:00 12.23056 C 9.63 g/m*3 12.23 C 2.73542 km/h
785 06-10-2021 00:00:00 11.90382 C 9.14 g/m*3 11.9 C 9.46736 km/h
786 07-10-2021 00:00:00 12.24826 C 9.75 g/m*3 12.25 C 2.25278 km/h
787 08-10-2021 00:00:00 10.55104 C 8.99 g/m*3 10.55 C 1.36563 km/h
788 09-10-2021 00:00:00 9.57049 C 8.41 g/m*3 9.57 C 1.41181 km/h
789 10-10-2021 00:00:00 7.3184 C 7.33 g/m*3 7.32 C 1.06736 km/h
790 11-10-2021 00:00:00 8.84479 C 7.95 g/m*3 8.84 C 2.35417 km/h
791 12-10-2021 00:00:00 10.04271 C 9 g/m*3 10.04 C 2.00382 km/h
792 13-10-2021 00:00:00 8.32569 C 7.99 g/m*3 8.33 C 2.06319 km/h
793 14-10-2021 00:00:00 10.88194 C 9.12 g/m*3 10.88 C 4.49896 km/h
794 15-10-2021 00:00:00 9.27708 C 8.37 g/m*3 9.28 C 4.56597 km/h
795 16-10-2021 00:00:00 7.72118 C 7.86 g/m*3 7.72 C 1.28368 km/h
796 17-10-2021 00:00:00 9.33681 C 8.28 g/m*3 9.34 C 0.84132 km/h
797 18-10-2021 00:00:00 7.59896 C 7.52 g/m*3 7.6 C 1.41563 km/h
798 19-10-2021 00:00:00 11.75903 C 10.07 g/m*3 11.76 C 2.4184 km/h
799 20-10-2021 00:00:00 13.41528 C 10.99 g/m*3 13.42 C 3.45556 km/h
800 21-10-2021 00:00:00 11.72882 C 8.86 g/m*3 11.73 C 15.61458 km/h
Sensor: Nr:Datum:Temp:Abs-Feuchte:Windchill:Wind:
Aussen-T/F 801 22-10-2021 00:00:00 7.64946 C 6.94 g/m*3 5.92 C 9.49713 km/h
802 23-10-2021 00:00:00 8.12431 C 7.68 g/m*3 8.12 C 0.82778 km/h
803 24-10-2021 00:00:00 5.46007 C 6.56 g/m*3 5.46 C 1.0684 km/h
804 25-10-2021 00:00:00 6.09063 C 7.01 g/m*3 6.09 C 1.26597 km/h
805 26-10-2021 00:00:00 11.92049 C 9.22 g/m*3 11.92 C 8.95313 km/h
806 27-10-2021 00:00:00 12.22986 C 9.65 g/m*3 12.23 C 6.11736 km/h
807 28-10-2021 00:00:00 8.55139 C 8.09 g/m*3 8.55 C 2.53611 km/h
808 29-10-2021 00:00:00 8.21389 C 7.83 g/m*3 8.21 C 1.06354 km/h
809 30-10-2021 00:00:00 9.46285 C 8.52 g/m*3 9.46 C 1.775 km/h
810 31-10-2021 00:00:00 13.42361 C 10.8 g/m*3 13.42 C 2.30347 km/h
811 01-11-2021 00:00:00 9.80764 C 8.42 g/m*3 9.81 C 4.00313 km/h
812 02-11-2021 00:00:00 7.40556 C 7.56 g/m*3 7.41 C 1.99201 km/h
813 03-11-2021 00:00:00 7.15833 C 7.57 g/m*3 7.16 C 0.95382 km/h
814 04-11-2021 00:00:00 7.47153 C 7.58 g/m*3 7.47 C 4.87188 km/h
815 05-11-2021 00:00:00 7.72639 C 7.69 g/m*3 7.73 C 1.42222 km/h
816 06-11-2021 00:00:00 7.21007 C 7.23 g/m*3 6.25 C 6.05069 km/h
817 07-11-2021 00:00:00 8.28576 C 7.31 g/m*3 6.01 C 13.46563 km/h
818 08-11-2021 00:00:00 7.43125 C 7.36 g/m*3 7.43 C 1.85625 km/h
819 09-11-2021 00:00:00 4.94965 C 6.45 g/m*3 4.95 C 0.69444 km/h
820 10-11-2021 00:00:00 1.52188 C 5.19 g/m*3 1.52 C 0.42778 km/h
821 11-11-2021 00:00:00 2.06285 C 5.42 g/m*3 2.06 C 1.17222 km/h
822 12-11-2021 00:00:00 2.05104 C 5.4 g/m*3 2.05 C 1.7066 km/h
823 13-11-2021 00:00:00 6.30139 C 7.18 g/m*3 6.3 C 0.48958 km/h
824 14-11-2021 00:00:00 8.13194 C 8.01 g/m*3 8.13 C 1.26007 km/h
825 15-11-2021 00:00:00 7.29306 C 7.32 g/m*3 7.29 C 2.57569 km/h
Sensor: Nr:Datum:Temp:Abs-Feuchte:Windchill:Wind:
Aussen-T/F 826 16-11-2021 00:00:00 5.99063 C 6.95 g/m*3 5.99 C 0.04444 km/h
827 17-11-2021 00:00:00 6.40104 C 7.01 g/m*3 5.59 C 5.21736 km/h
828 18-11-2021 00:00:00 5.99167 C 6.87 g/m*3 5.99 C 3.74965 km/h
829 19-11-2021 00:00:00 9.17708 C 8.26 g/m*3 8.12 C 7.61806 km/h
830 20-11-2021 00:00:00 8.13021 C 7.62 g/m*3 8.13 C 1.53924 km/h
831 21-11-2021 00:00:00 6.92187 C 7.32 g/m*3 6.92 C 3.75486 km/h
832 22-11-2021 00:00:00 4.30625 C 5.99 g/m*3 4.31 C 2.13403 km/h
833 23-11-2021 00:00:00 0.85625 C 4.92 g/m*3 0.86 C 0 km/h
834 24-11-2021 00:00:00 3.7691 C 5.8 g/m*3 3.77 C 0.45069 km/h
835 25-11-2021 00:00:00 3.23958 C 5.56 g/m*3 3.24 C 0.13889 km/h
836 26-11-2021 00:00:00 3.97083 C 5.7 g/m*3 2.84 C 5.17951 km/h
837 27-11-2021 00:00:00 2.5934 C 5.29 g/m*3 2.59 C 3.8125 km/h
838 28-11-2021 00:00:00 2.37083 C 5.45 g/m*3 2.37 C 0.7066 km/h
839 29-11-2021 00:00:00 2.425 C 5.39 g/m*3 0.88 C 5.68056 km/h
840 30-11-2021 00:00:00 5.43368 C 6.4 g/m*3 1.45 C 21.45313 km/h
841 01-12-2021 00:00:00 7.85486 C 7.37 g/m*3 5 C 17.09271 km/h
842 02-12-2021 00:00:00 3.98472 C 5.79 g/m*3 2.12 C 7.36354 km/h
843 03-12-2021 00:00:00 2.66597 C 5.11 g/m*3 0.43 C 7.88056 km/h
844 04-12-2021 00:00:00 4.26979 C 6.02 g/m*3 4.27 C 4.35104 km/h
845 05-12-2021 00:00:00 3.56597 C 5.72 g/m*3 3.57 C 1.59306 km/h
846 06-12-2021 00:00:00 2.27778 C 5.39 g/m*3 2.28 C 2.75729 km/h
847 07-12-2021 00:00:00 3.60989 C 5.67 g/m*3 1.43 C 8.25936 km/h
848 08-12-2021 00:00:00 3.88854 C 5.83 g/m*3 3.89 C 3.59618 km/h
849 09-12-2021 00:00:00 2.99028 C 5.47 g/m*3 1.53 C 5.67951 km/h
850 10-12-2021 00:00:00 2.62882 C 5.22 g/m*3 2.63 C 2.95035 km/h
Sensor: Nr:Datum:Temp:Abs-Feuchte:Windchill:Wind:
Aussen-T/F 851 11-12-2021 00:00:00 3.46007 C 5.74 g/m*3 2 C 5.85694 km/h
852 12-12-2021 00:00:00 5.02674 C 6.38 g/m*3 3.18 C 7.95833 km/h
853 13-12-2021 00:00:00 7.93368 C 7.69 g/m*3 7.93 C 2.89271 km/h
854 14-12-2021 00:00:00 7.64792 C 7.55 g/m*3 7.65 C 1.625 km/h
855 15-12-2021 00:00:00 8.35312 C 7.77 g/m*3 8.35 C 2.27813 km/h
856 16-12-2021 00:00:00 8.60035 C 7.97 g/m*3 8.6 C 0.71806 km/h
857 17-12-2021 00:00:00 7.56667 C 7.54 g/m*3 7.57 C 0.50035 km/h
858 18-12-2021 00:00:00 4.44514 C 6.29 g/m*3 4.45 C 1.85174 km/h
859 19-12-2021 00:00:00 5.97917 C 6.79 g/m*3 4.98 C 5.59479 km/h
860 20-12-2021 00:00:00 2.84965 C 5.44 g/m*3 2.85 C 1.12813 km/h
861 21-12-2021 00:00:00 -3.77569 C 3.55 g/m*3 -3.78 C 0.16111 km/h
862 22-12-2021 00:00:00 -4.11632 C 3.46 g/m*3 -4.12 C 0.02778 km/h
863 23-12-2021 00:00:00 0.27813 C 4.67 g/m*3 -1.7 C 5.98611 km/h
864 24-12-2021 00:00:00 8.38854 C 7.57 g/m*3 6.51 C 11.09375 km/h
865 25-12-2021 00:00:00 3.19514 C 5.69 g/m*3 3.2 C 3.71181 km/h
866 26-12-2021 00:00:00 0.79167 C 4.78 g/m*3 0.79 C 2.03021 km/h
867 27-12-2021 00:00:00 4.78819 C 6.47 g/m*3 4.79 C 0.96875 km/h
868 28-12-2021 00:00:00 8.62396 C 8.11 g/m*3 7.42 C 7.85556 km/h
869 29-12-2021 00:00:00 9.86042 C 8.52 g/m*3 8.79 C 8.27049 km/h
870 30-12-2021 00:00:00 13.13437 C 10.63 g/m*3 13.13 C 11.45833 km/h
871 31-12-2021 00:00:00 12.33194 C 9.78 g/m*3 12.33 C 9.79271 km/h
872 01-01-2022 00:00:00 10.80382 C 9.09 g/m*3 10.8 C 3.21632 km/h
873 02-01-2022 00:00:00 9.48403 C 8.29 g/m*3 8.42 C 7.90382 km/h
874 03-01-2022 00:00:00 9.86563 C 8.29 g/m*3 8.02 C 12.93333 km/h
875 04-01-2022 00:00:00 7.22049 C 7.44 g/m*3 6.29 C 5.94931 km/h
Sensor: Nr:Datum:Temp:Abs-Feuchte:Windchill:Wind:
Aussen-T/F 876 05-01-2022 00:00:00 4.0559 C 5.52 g/m*3 1.02 C 12.50694 km/h
877 06-01-2022 00:00:00 3.13194 C 5.49 g/m*3 3.13 C 3.49861 km/h
878 07-01-2022 00:00:00 2.98056 C 5.35 g/m*3 0.27 C 9.89236 km/h
879 08-01-2022 00:00:00 1.76354 C 5.19 g/m*3 1.76 C 3.82153 km/h
880 09-01-2022 00:00:00 4.20139 C 5.92 g/m*3 1.94 C 8.98958 km/h
881 10-01-2022 00:00:00 1.95312 C 5.24 g/m*3 1.95 C 2.48125 km/h
882 11-01-2022 00:00:00 -0.04375 C 4.62 g/m*3 -0.04 C 1.95556 km/h
883 12-01-2022 00:00:00 0.49792 C 4.76 g/m*3 0.5 C 0.88958 km/h
884 13-01-2022 00:00:00 1.37743 C 5.01 g/m*3 1.38 C 0.53333 km/h
885 14-01-2022 00:00:00 0.13819 C 4.74 g/m*3 0.14 C 0.96667 km/h
886 15-01-2022 00:00:00 2.04792 C 5.34 g/m*3 2.05 C 1.81181 km/h
887 16-01-2022 00:00:00 2.73264 C 5.41 g/m*3 -0.56 C 12.32604 km/h
888 17-01-2022 00:00:00 5.46493 C 6.39 g/m*3 3.09 C 10.58229 km/h
889 18-01-2022 00:00:00 6.39375 C 6.9 g/m*3 6.39 C 0.77361 km/h
890 19-01-2022 00:00:00 3.79792 C 5.7 g/m*3 1.72 C 8.00729 km/h
891 20-01-2022 00:00:00 3.75868 C 5.51 g/m*3 1.25 C 9.67396 km/h
892 21-01-2022 00:00:00 3.49826 C 5.52 g/m*3 1.66 C 7.00625 km/h
893 22-01-2022 00:00:00 5.33785 C 6.36 g/m*3 5.34 C 3.48056 km/h
894 23-01-2022 00:00:00 4.91806 C 6.29 g/m*3 4.92 C 0.25556 km/h
895 24-01-2022 00:00:00 3.16979 C 5.45 g/m*3 3.17 C 1.35868 km/h
896 25-01-2022 00:00:00 2.26424 C 5.29 g/m*3 2.26 C 2.67986 km/h
897 26-01-2022 00:00:00 2.02674 C 5.12 g/m*3 2.03 C 4.36354 km/h
898 27-01-2022 00:00:00 3.49583 C 5.5 g/m*3 0.16 C 13.44236 km/h
899 28-01-2022 00:00:00 5.50104 C 5.94 g/m*3 3.25 C 10.01424 km/h
900 29-01-2022 00:00:00 6.97188 C 6.91 g/m*3 4 C 16.3309 km/h
Sensor: Nr:Datum:Temp:Abs-Feuchte:Windchill:Wind:
Aussen-T/F 901 30-01-2022 00:00:00 6.09653 C 5.5 g/m*3 3.65 C 11.62743 km/h
902 31-01-2022 00:00:00 4.35 C 5.81 g/m*3 0.65 C 16.96007 km/h
903 01-02-2022 00:00:00 5.41736 C 6.07 g/m*3 2.08 C 16.23472 km/h
904 02-02-2022 00:00:00 8.17535 C 6.98 g/m*3 6.44 C 10.06042 km/h
905 03-02-2022 00:00:00 7.63611 C 7.3 g/m*3 6.31 C 7.65278 km/h
906 04-02-2022 00:00:00 6.72535 C 6.68 g/m*3 4.53 C 11.00556 km/h
907 05-02-2022 00:00:00 3.79861 C 5.39 g/m*3 0.76 C 12.21632 km/h
908 06-02-2022 00:00:00 6.18611 C 6.49 g/m*3 2.5 C 20.51458 km/h
909 07-02-2022 00:00:00 4.77812 C 5.52 g/m*3 1.98 C 12.05625 km/h
910 08-02-2022 00:00:00 7.06389 C 6.8 g/m*3 4.67 C 12.49479 km/h
911 09-02-2022 00:00:00 8.18229 C 7.33 g/m*3 8.18 C 3.99826 km/h
912 10-02-2022 00:00:00 4.81597 C 6.16 g/m*3 2.97 C 7.81181 km/h
913 11-02-2022 00:00:00 3.00208 C 5.29 g/m*3 1.1 C 6.96944 km/h
914 12-02-2022 00:00:00 -0.3434 C 4.33 g/m*3 -0.34 C 1.51944 km/h
915 13-02-2022 00:00:00 1.22569 C 4.83 g/m*3 1.23 C 1.80278 km/h
916 14-02-2022 00:00:00 7.63299 C 6.82 g/m*3 6.79 C 5.86701 km/h
917 15-02-2022 00:00:00 6.89271 C 6.47 g/m*3 5.15 C 8.8816 km/h
918 16-02-2022 00:00:00 11.03819 C 8.56 g/m*3 11.04 C 20.79583 km/h
919 17-02-2022 00:00:00 11.06701 C 6.93 g/m*3 11.07 C 22.90243 km/h
920 18-02-2022 00:00:00 9.87188 C 7.13 g/m*3 7.37 C 18.48125 km/h
921 19-02-2022 00:00:00 6.35868 C 5.23 g/m*3 2.99 C 18.2441 km/h
922 20-02-2022 00:00:00 9.10937 C 7.46 g/m*3 5.97 C 23.03507 km/h
923 21-02-2022 00:00:00 6.44722 C 6.14 g/m*3 2.68 C 21.97188 km/h
924 22-02-2022 00:00:00 7.36042 C 6.55 g/m*3 4.6 C 15.46528 km/h
925 23-02-2022 00:00:00 6.47326 C 6.22 g/m*3 6.47 C 4.78819 km/h
Sensor: Nr:Datum:Temp:Abs-Feuchte:Windchill:Wind:
Aussen-T/F 926 24-02-2022 00:00:00 6.62569 C 6.43 g/m*3 4.89 C 8.65208 km/h
927 25-02-2022 00:00:00 3.67917 C 5.38 g/m*3 0.86 C 10.98646 km/h
928 26-02-2022 00:00:00 3.14792 C 5.32 g/m*3 3.15 C 1.76875 km/h
929 27-02-2022 00:00:00 1.75104 C 4.49 g/m*3 1.75 C 3.87118 km/h
930 28-02-2022 00:00:00 1.89201 C 4.4 g/m*3 1.89 C 2.27986 km/h
931 01-03-2022 00:00:00 2.02812 C 4.31 g/m*3 2.03 C 1.53264 km/h
932 02-03-2022 00:00:00 3.03229 C 4.38 g/m*3 3.03 C 2.08403 km/h
933 03-03-2022 00:00:00 2.25069 C 4.2 g/m*3 2.25 C 2.58194 km/h
934 04-03-2022 00:00:00 1.86701 C 4.18 g/m*3 1.87 C 2.96875 km/h
935 05-03-2022 00:00:00 0.95903 C 4 g/m*3 0.96 C 2.30972 km/h
936 06-03-2022 00:00:00 0.51076 C 3.71 g/m*3 0.51 C 3.02847 km/h
937 07-03-2022 00:00:00 0.4684 C 3.53 g/m*3 -1.12 C 5.14132 km/h
938 08-03-2022 00:00:00 1.5316 C 3.83 g/m*3 1.53 C 3.74514 km/h
939 09-03-2022 00:00:00 2.68715 C 4.06 g/m*3 2.69 C 2.30174 km/h
940 10-03-2022 00:00:00 4.09792 C 4.38 g/m*3 4.1 C 2.88924 km/h
941 11-03-2022 00:00:00 5.45104 C 4.52 g/m*3 5.45 C 4.65347 km/h
942 12-03-2022 00:00:00 8.48785 C 5.19 g/m*3 8.49 C 4.89861 km/h
943 13-03-2022 00:00:00 7.91111 C 5.34 g/m*3 7.91 C 3.34097 km/h
944 14-03-2022 00:00:00 8.85417 C 7.27 g/m*3 7.78 C 7.49132 km/h
945 15-03-2022 00:00:00 4.95556 C 6.4 g/m*3 4.96 C 0 km/h
946 16-03-2022 00:00:00 7.40347 C 7.1 g/m*3 7.4 C 1.68438 km/h
947 17-03-2022 00:00:00 7.78056 C 7.1 g/m*3 7.23 C 5.01042 km/h
948 18-03-2022 00:00:00 6.60938 C 5.34 g/m*3 6.61 C 4.90243 km/h
949 19-03-2022 00:00:00 6.96528 C 5.16 g/m*3 5.28 C 8.71701 km/h
950 20-03-2022 00:00:00 7.34583 C 5.71 g/m*3 7.35 C 4.65035 km/h
Sensor: Nr:Datum:Temp:Abs-Feuchte:Windchill:Wind:
Aussen-T/F 951 21-03-2022 00:00:00 10.51563 C 6.79 g/m*3 10.52 C 2.27951 km/h
952 22-03-2022 00:00:00 8.42396 C 5.53 g/m*3 8.42 C 3.02951 km/h
953 23-03-2022 00:00:00 8.30972 C 5.71 g/m*3 8.31 C 1.58438 km/h
954 24-03-2022 00:00:00 8.64132 C 5.81 g/m*3 8.64 C 2.23125 km/h
955 25-03-2022 00:00:00 8.58819 C 5.77 g/m*3 8.59 C 2.63646 km/h
956 26-03-2022 00:00:00 8.94306 C 5.98 g/m*3 8.94 C 3.09653 km/h
957 27-03-2022 00:00:00 10.76812 C 7.52 g/m*3 10.77 C 2.78659 km/h
958 28-03-2022 00:00:00 11.85278 C 7.62 g/m*3 11.85 C 3.41597 km/h
959 29-03-2022 00:00:00 11.51736 C 7.68 g/m*3 11.52 C 2.62049 km/h
960 30-03-2022 00:00:00 9.57847 C 7.43 g/m*3 9.58 C 3.11979 km/h
961 31-03-2022 00:00:00 6.48993 C 6.35 g/m*3 6.49 C 4.38194 km/h
962 01-04-2022 00:00:00 2.86597 C 5.18 g/m*3 0.62 C 8.01771 km/h
963 02-04-2022 00:00:00 1.97292 C 4.72 g/m*3 -0.22 C 7.33576 km/h
964 03-04-2022 00:00:00 3.15556 C 4.36 g/m*3 3.16 C 4.47882 km/h
965 04-04-2022 00:00:00 4.52083 C 5.05 g/m*3 0.93 C 16.48958 km/h
966 05-04-2022 00:00:00 9.24201 C 7.81 g/m*3 6.39 C 20.32396 km/h
967 06-04-2022 00:00:00 11.1066 C 7.41 g/m*3 11.11 C 15.60486 km/h
968 07-04-2022 00:00:00 11.55417 C 7.31 g/m*3 11.55 C 22.16736 km/h
969 08-04-2022 00:00:00 5.59201 C 6.12 g/m*3 4.03 C 7.24688 km/h
970 09-04-2022 00:00:00 5.77604 C 5.79 g/m*3 3.56 C 10.11528 km/h
971 10-04-2022 00:00:00 5.64028 C 5.39 g/m*3 4.74 C 5.19097 km/h
972 11-04-2022 00:00:00 7.66979 C 5.75 g/m*3 7.67 C 4.47569 km/h
973 12-04-2022 00:00:00 13.44479 C 7.7 g/m*3 13.44 C 3.97396 km/h
974 13-04-2022 00:00:00 14.96667 C 9.44 g/m*3 14.97 C 2.76528 km/h
975 14-04-2022 00:00:00 15.05833 C 9.84 g/m*3 15.06 C 4.85278 km/h
Sensor: Nr:Datum:Temp:Abs-Feuchte:Windchill:Wind:
Aussen-T/F 976 15-04-2022 00:00:00 12.1691 C 8.29 g/m*3 12.17 C 5.75556 km/h
977 16-04-2022 00:00:00 9.51632 C 6.07 g/m*3 8.73 C 6.73229 km/h
978 17-04-2022 00:00:00 9.21562 C 5.45 g/m*3 8.8 C 5.19931 km/h
979 18-04-2022 00:00:00 9.82465 C 5.83 g/m*3 9.82 C 3.48021 km/h
980 19-04-2022 00:00:00 10.70521 C 6.39 g/m*3 10.71 C 4.03542 km/h
981 20-04-2022 00:00:00 10.37118 C 5.92 g/m*3 9.58 C 7.33368 km/h
982 21-04-2022 00:00:00 10.92639 C 7.07 g/m*3 10.49 C 6.19097 km/h
983 22-04-2022 00:00:00 12.31181 C 7.75 g/m*3 12.31 C 8.20938 km/h
984 23-04-2022 00:00:00 12.48681 C 8.02 g/m*3 12.49 C 7.11979 km/h
985 24-04-2022 00:00:00 12.53715 C 7.72 g/m*3 12.54 C 4.33194 km/h
986 25-04-2022 00:00:00 9.85069 C 8.45 g/m*3 9.85 C 3.41632 km/h
987 26-04-2022 00:00:00 9.15243 C 8.27 g/m*3 9.15 C 1.27708 km/h
988 27-04-2022 00:00:00 11.40382 C 8.54 g/m*3 11.4 C 3.30104 km/h
989 28-04-2022 00:00:00 12.06493 C 8.04 g/m*3 12.06 C 2.92014 km/h
990 29-04-2022 00:00:00 12.12986 C 8.18 g/m*3 12.13 C 3.83229 km/h
991 30-04-2022 00:00:00 10.83993 C 7.74 g/m*3 10.29 C 6.62465 km/h
992 01-05-2022 00:00:00 11.55382 C 7.83 g/m*3 11.55 C 3.12118 km/h
993 02-05-2022 00:00:00 13.33785 C 8.8 g/m*3 13.34 C 3.34826 km/h
994 03-05-2022 00:00:00 15.40799 C 8.89 g/m*3 15.41 C 5.46181 km/h
995 04-05-2022 00:00:00 14.25313 C 8.97 g/m*3 14.25 C 3.61493 km/h
996 05-05-2022 00:00:00 14.23993 C 8.59 g/m*3 14.24 C 1.90521 km/h
997 06-05-2022 00:00:00 14.14757 C 8.5 g/m*3 14.15 C 3.575 km/h
998 07-05-2022 00:00:00 15.16319 C 9.29 g/m*3 15.16 C 2.92708 km/h
999 08-05-2022 00:00:00 15.17986 C 10.74 g/m*3 15.18 C 3.04236 km/h
1000 09-05-2022 00:00:00 16.04861 C 9.94 g/m*3 16.05 C 3.06771 km/h
Sensor: Nr:Datum:Temp:Abs-Feuchte:Windchill:Wind:
Aussen-T/F 1001 10-05-2022 00:00:00 17.88646 C 10.65 g/m*3 17.89 C 3.96632 km/h
1002 11-05-2022 00:00:00 21.06458 C 11.04 g/m*3 21.06 C 8.89479 km/h
1003 12-05-2022 00:00:00 18.76944 C 9.72 g/m*3 18.77 C 6.82778 km/h
1004 13-05-2022 00:00:00 15.74306 C 8.92 g/m*3 15.74 C 6.05486 km/h
1005 14-05-2022 00:00:00 16.19757 C 9.3 g/m*3 16.2 C 3.67292 km/h
1006 15-05-2022 00:00:00 17.37917 C 10.16 g/m*3 17.38 C 3.96736 km/h
1007 16-05-2022 00:00:00 17.70278 C 12.11 g/m*3 17.7 C 3.91146 km/h
1008 17-05-2022 00:00:00 19.03125 C 12.51 g/m*3 19.03 C 2.67639 km/h
1009 18-05-2022 00:00:00 21.24306 C 12.76 g/m*3 21.24 C 3.05243 km/h
1010 19-05-2022 00:00:00 20.54167 C 13.69 g/m*3 20.54 C 3.32639 km/h
1011 20-05-2022 00:00:00 18.98763 C 14.91 g/m*3 18.99 C 3.32862 km/h
1012 21-05-2022 00:00:00 15.69132 C 10.12 g/m*3 15.69 C 7.88472 km/h
1013 22-05-2022 00:00:00 16.65069 C 10.56 g/m*3 16.65 C 2.57326 km/h
1014 23-05-2022 00:00:00 18.41146 C 12.66 g/m*3 18.41 C 5.49757 km/h
1015 24-05-2022 00:00:00 15.37639 C 10.56 g/m*3 15.38 C 7.33889 km/h
1016 25-05-2022 00:00:00 15.3184 C 9.29 g/m*3 15.32 C 7.07674 km/h
1017 26-05-2022 00:00:00 18.39792 C 10.17 g/m*3 18.4 C 10.67118 km/h
1018 27-05-2022 00:00:00 17.1441 C 9.91 g/m*3 17.14 C 11.07743 km/h
1019 28-05-2022 00:00:00 13.41424 C 7.47 g/m*3 13.41 C 9.29375 km/h
1020 29-05-2022 00:00:00 10.93229 C 7.51 g/m*3 10.54 C 5.99861 km/h
1021 30-05-2022 00:00:00 12.46528 C 7.76 g/m*3 12.47 C 4.56354 km/h
1022 31-05-2022 00:00:00 13.68333 C 8.45 g/m*3 13.68 C 4.15868 km/h
1023 01-06-2022 00:00:00 14.90764 C 8.79 g/m*3 14.91 C 5.68125 km/h
1024 02-06-2022 00:00:00 14.69444 C 8.44 g/m*3 14.69 C 3.82778 km/h
1025 03-06-2022 00:00:00 17.90833 C 10.91 g/m*3 17.91 C 2.25382 km/h
Sensor: Nr:Datum:Temp:Abs-Feuchte:Windchill:Wind:
Aussen-T/F 1026 04-06-2022 00:00:00 21.26632 C 13.63 g/m*3 21.27 C 3.7934 km/h
1027 05-06-2022 00:00:00 18.13715 C 13.84 g/m*3 18.14 C 4.55868 km/h
1028 06-06-2022 00:00:00 18.43681 C 11.95 g/m*3 18.44 C 10.1 km/h
1029 07-06-2022 00:00:00 17.83646 C 11.6 g/m*3 17.84 C 8.55278 km/h
1030 08-06-2022 00:00:00 16.4375 C 12.43 g/m*3 16.44 C 3.42951 km/h
1031 09-06-2022 00:00:00 14.97847 C 11.57 g/m*3 14.98 C 5.41597 km/h
1032 10-06-2022 00:00:00 16.50903 C 11.26 g/m*3 16.51 C 2.91389 km/h
1033 11-06-2022 00:00:00 19.40278 C 13.12 g/m*3 19.4 C 1.7691 km/h
1034 12-06-2022 00:00:00 19.78576 C 12.13 g/m*3 19.79 C 4.73333 km/h
1035 13-06-2022 00:00:00 17.16771 C 9.77 g/m*3 17.17 C 6.90139 km/h
1036 14-06-2022 00:00:00 16.71042 C 9.38 g/m*3 16.71 C 3.72118 km/h
1037 15-06-2022 00:00:00 19.78507 C 11.33 g/m*3 19.79 C 2.44792 km/h
1038 16-06-2022 00:00:00 20.55729 C 11.1 g/m*3 20.56 C 6.85903 km/h
1039 17-06-2022 00:00:00 20.9191 C 11.81 g/m*3 20.92 C 2.89375 km/h
1040 18-06-2022 00:00:00 25.21111 C 14.26 g/m*3 25.21 C 3.01736 km/h
1041 19-06-2022 00:00:00 22.72083 C 13.85 g/m*3 22.72 C 7.5309 km/h
1042 20-06-2022 00:00:00 15.71007 C 11.7 g/m*3 15.71 C 4.91736 km/h
1043 21-06-2022 00:00:00 17.43819 C 11.3 g/m*3 17.44 C 4.59722 km/h
1044 22-06-2022 00:00:00 20.47639 C 12.41 g/m*3 20.48 C 2.7 km/h
1045 23-06-2022 00:00:00 23.55833 C 15.79 g/m*3 23.56 C 2.94549 km/h
1046 24-06-2022 00:00:00 20.33819 C 15.05 g/m*3 20.34 C 4.64306 km/h
1047 25-06-2022 00:00:00 20.23229 C 13.94 g/m*3 20.23 C 2.68229 km/h
1048 26-06-2022 00:00:00 19.05799 C 13.87 g/m*3 19.06 C 4.79063 km/h
1049 27-06-2022 00:00:00 18.69826 C 13.83 g/m*3 18.7 C 4.3375 km/h
1050 28-06-2022 00:00:00 19.05278 C 12.06 g/m*3 19.05 C 3.69583 km/h
Sensor: Nr:Datum:Temp:Abs-Feuchte:Windchill:Wind:
Aussen-T/F 1051 29-06-2022 00:00:00 20.56493 C 13.28 g/m*3 20.56 C 1.36285 km/h
1052 30-06-2022 00:00:00 22.09757 C 14.59 g/m*3 22.1 C 3.61111 km/h
1053 01-07-2022 00:00:00 17.18576 C 11.65 g/m*3 17.19 C 4.12083 km/h
1054 02-07-2022 00:00:00 18.83854 C 10.91 g/m*3 18.84 C 3.51771 km/h
1055 03-07-2022 00:00:00 21.19201 C 12.04 g/m*3 21.19 C 5.69167 km/h
1056 04-07-2022 00:00:00 19.58542 C 10.67 g/m*3 19.59 C 4.85903 km/h
1057 05-07-2022 00:00:00 19.23958 C 10.96 g/m*3 19.24 C 5.64549 km/h
1058 06-07-2022 00:00:00 17.35764 C 9.53 g/m*3 17.36 C 7.43993 km/h
1059 07-07-2022 00:00:00 17.53993 C 11.14 g/m*3 17.54 C 9.09965 km/h
1060 08-07-2022 00:00:00 18.29583 C 10.48 g/m*3 18.3 C 6.30486 km/h
1061 09-07-2022 00:00:00 18.68264 C 12.24 g/m*3 18.68 C 4.73854 km/h
1062 10-07-2022 00:00:00 16.71875 C 10.51 g/m*3 16.72 C 7.23438 km/h
1063 11-07-2022 00:00:00 18.75521 C 12.63 g/m*3 18.76 C 4.09375 km/h
1064 12-07-2022 00:00:00 20.00104 C 12.45 g/m*3 20 C 2.0375 km/h
1065 13-07-2022 00:00:00 24.95 C 13.45 g/m*3 24.95 C 5.69167 km/h
1066 14-07-2022 00:00:00 21.90729 C 12.27 g/m*3 21.91 C 7.29167 km/h
1067 15-07-2022 00:00:00 18.41076 C 9.83 g/m*3 18.41 C 6.23229 km/h
1068 16-07-2022 00:00:00 18.1441 C 9.79 g/m*3 18.14 C 7.04132 km/h
1069 17-07-2022 00:00:00 19.17778 C 9.64 g/m*3 19.18 C 3.30486 km/h
1070 18-07-2022 00:00:00 22.99167 C 11.13 g/m*3 22.99 C 2.85278 km/h
1071 19-07-2022 00:00:00 25.4566 C 12.25 g/m*3 25.46 C 3.42604 km/h
1072 20-07-2022 00:00:00 23.88924 C 13.75 g/m*3 23.89 C 5.65972 km/h
1073 21-07-2022 00:00:00 20.93611 C 14.81 g/m*3 20.94 C 6.39722 km/h
1074 22-07-2022 00:00:00 21.77882 C 13.42 g/m*3 21.78 C 5.79028 km/h
1075 23-07-2022 00:00:00 22.19687 C 12.93 g/m*3 22.2 C 4.91285 km/h
Sensor: Nr:Datum:Temp:Abs-Feuchte:Windchill:Wind:
Aussen-T/F 1076 24-07-2022 00:00:00 23.41562 C 13.36 g/m*3 23.42 C 3.02014 km/h
1077 25-07-2022 00:00:00 23.45312 C 13.77 g/m*3 23.45 C 6.06806 km/h
1078 26-07-2022 00:00:00 20.3559 C 12.12 g/m*3 20.36 C 6.78854 km/h
1079 27-07-2022 00:00:00 19.05104 C 10.07 g/m*3 19.05 C 7.21597 km/h
1080 28-07-2022 00:00:00 18.42708 C 10.22 g/m*3 18.43 C 4.01354 km/h
1081 29-07-2022 00:00:00 21.725 C 11.5 g/m*3 21.73 C 4.86424 km/h
1082 30-07-2022 00:00:00 21.40694 C 11.42 g/m*3 21.41 C 6.06458 km/h
1083 31-07-2022 00:00:00 23.15903 C 12.54 g/m*3 23.16 C 3.12847 km/h
1084 01-08-2022 00:00:00 22.83021 C 13.88 g/m*3 22.83 C 5.3125 km/h
1085 02-08-2022 00:00:00 22.15833 C 13.08 g/m*3 22.16 C 3.32778 km/h
1086 03-08-2022 00:00:00 24.96528 C 13.62 g/m*3 24.97 C 2.79757 km/h
1087 04-08-2022 00:00:00 25.94167 C 14.33 g/m*3 25.94 C 3.74167 km/h
1088 05-08-2022 00:00:00 21.01632 C 15.05 g/m*3 21.02 C 6.76736 km/h
1089 06-08-2022 00:00:00 17.8125 C 9.75 g/m*3 17.81 C 6.0875 km/h
1090 07-08-2022 00:00:00 18.03021 C 9.63 g/m*3 18.03 C 4.35694 km/h
1091 08-08-2022 00:00:00 20.36632 C 10.56 g/m*3 20.37 C 4.5816 km/h
1092 09-08-2022 00:00:00 21.50521 C 11.28 g/m*3 21.51 C 4.32153 km/h
1093 10-08-2022 00:00:00 22.81007 C 10.87 g/m*3 22.81 C 6.15729 km/h
1094 11-08-2022 00:00:00 22.78229 C 10.65 g/m*3 22.78 C 5.33299 km/h
1095 12-08-2022 00:00:00 22.69028 C 10.23 g/m*3 22.69 C 6.125 km/h
1096 13-08-2022 00:00:00 22.63646 C 10.48 g/m*3 22.64 C 4.42882 km/h

Maximal/Minimal-Werte vom 14.08.2019 - 13.08.2022

Sensor Min Max Avg
Temp
(Aussen-T/F)
-9.6 °C
14-02-2021  07:20:00
39.4 °C
19-07-2022  17:25:00
11.29 °C
Abs-Feuchte
(Aussen-T/F)
2.57 g/m*3
10-02-2021  00:00:00
17.61 g/m*3
12-08-2020  00:00:00
8.7 g/m*3
Windchill
(Aussen-T/F)
-8.41 C
10-02-2021  00:00:00
26.13 C
08-08-2020  00:00:00
10.94 C

Die Daten stammen von einer Davis Vantage Pro 2 Wetter-Station und werden unter Linux mit der Software wview2wettercgi und aufbereitet. Alle Angaben erfolgen ohne Gewähr für ihre Vollständigkeit oder Richtigkeit.
Kontakt: Rainer Krienke krienke@uni-koblenz.de . Meine Webseiten an der Uni Koblenz oder privat.
Version: $Revision: 0.78 $